<?xml version="1.0" encoding="UTF-8" standalone="no" ?>
<gpx xmlns="http://www.topografix.com/GPX/1/1" xmlns:xsi="http://www.w3.org/2001/XMLSchema-instance" xsi:schemaLocation="http://www.topografix.com/GPX/1/1 http://www.topografix.com/GPX/1/1/gpx.xsd" version="1.1" creator="VisuGPX - https://www.visugpx.com">
  <metadata>
    <name>lundi 2016 04</name>
    <desc><![CDATA[cumul avril 2016]]></desc>
  </metadata>
  <trk>
    <name><![CDATA[lundi 2016 04 18]]></name>
    <extensions>
      <line xmlns="http://www.topografix.com/GPX/gpx_style/0/2">
        <color>000000</color>
      </line>
    </extensions>
    <trkseg>
      <trkpt lat="48.8574" lon="2.34733">
        <ele>40.400001525879</ele>
        <time>2016-04-18T18:19:46Z</time>
      </trkpt>
      <trkpt lat="48.85743" lon="2.34742">
        <ele>40.400001525879</ele>
        <time>2016-04-18T18:20:08Z</time>
      </trkpt>
      <trkpt lat="48.85757" lon="2.34762">
        <ele>39.79999923706</ele>
        <time>2016-04-18T18:20:19Z</time>
      </trkpt>
      <trkpt lat="48.8576" lon="2.34767">
        <ele>39.599998474121</ele>
        <time>2016-04-18T18:20:21Z</time>
      </trkpt>
      <trkpt lat="48.85773" lon="2.34781">
        <ele>39.20000076294</ele>
        <time>2016-04-18T18:20:30Z</time>
      </trkpt>
      <trkpt lat="48.85791" lon="2.34793">
        <ele>41.20000076294</ele>
        <time>2016-04-18T18:20:51Z</time>
      </trkpt>
      <trkpt lat="48.85809" lon="2.34806">
        <ele>43</ele>
        <time>2016-04-18T18:20:56Z</time>
      </trkpt>
      <trkpt lat="48.85826" lon="2.34819">
        <ele>44.599998474121</ele>
        <time>2016-04-18T18:21:02Z</time>
      </trkpt>
      <trkpt lat="48.85828" lon="2.34823">
        <ele>44.79999923706</ele>
        <time>2016-04-18T18:21:04Z</time>
      </trkpt>
      <trkpt lat="48.85832" lon="2.34829">
        <ele>45.20000076294</ele>
        <time>2016-04-18T18:21:08Z</time>
      </trkpt>
      <trkpt lat="48.85836" lon="2.34829">
        <ele>45.599998474121</ele>
        <time>2016-04-18T18:21:12Z</time>
      </trkpt>
      <trkpt lat="48.85855" lon="2.34836">
        <ele>47.79999923706</ele>
        <time>2016-04-18T18:21:19Z</time>
      </trkpt>
      <trkpt lat="48.85875" lon="2.34849">
        <ele>48</ele>
        <time>2016-04-18T18:21:24Z</time>
      </trkpt>
      <trkpt lat="48.85893" lon="2.34859">
        <ele>48</ele>
        <time>2016-04-18T18:21:28Z</time>
      </trkpt>
      <trkpt lat="48.85914" lon="2.34869">
        <ele>48</ele>
        <time>2016-04-18T18:21:32Z</time>
      </trkpt>
      <trkpt lat="48.85933" lon="2.34878">
        <ele>48</ele>
        <time>2016-04-18T18:21:36Z</time>
      </trkpt>
      <trkpt lat="48.85951" lon="2.3489">
        <ele>48.20000076294</ele>
        <time>2016-04-18T18:21:40Z</time>
      </trkpt>
      <trkpt lat="48.85969" lon="2.34898">
        <ele>48.400001525879</ele>
        <time>2016-04-18T18:21:44Z</time>
      </trkpt>
      <trkpt lat="48.85988" lon="2.34904">
        <ele>48.599998474121</ele>
        <time>2016-04-18T18:21:48Z</time>
      </trkpt>
      <trkpt lat="48.86008" lon="2.34908">
        <ele>48.79999923706</ele>
        <time>2016-04-18T18:21:53Z</time>
      </trkpt>
      <trkpt lat="48.86029" lon="2.34916">
        <ele>48.79999923706</ele>
        <time>2016-04-18T18:21:58Z</time>
      </trkpt>
      <trkpt lat="48.86048" lon="2.34921">
        <ele>48.400001525879</ele>
        <time>2016-04-18T18:22:03Z</time>
      </trkpt>
      <trkpt lat="48.86068" lon="2.34929">
        <ele>47.79999923706</ele>
        <time>2016-04-18T18:22:08Z</time>
      </trkpt>
      <trkpt lat="48.86074" lon="2.34935">
        <ele>47.599998474121</ele>
        <time>2016-04-18T18:22:09Z</time>
      </trkpt>
      <trkpt lat="48.86094" lon="2.34945">
        <ele>47</ele>
        <time>2016-04-18T18:22:13Z</time>
      </trkpt>
      <trkpt lat="48.86113" lon="2.34954">
        <ele>46.599998474121</ele>
        <time>2016-04-18T18:22:17Z</time>
      </trkpt>
      <trkpt lat="48.86134" lon="2.34967">
        <ele>46.79999923706</ele>
        <time>2016-04-18T18:22:21Z</time>
      </trkpt>
      <trkpt lat="48.86154" lon="2.34978">
        <ele>46.79999923706</ele>
        <time>2016-04-18T18:22:25Z</time>
      </trkpt>
      <trkpt lat="48.86173" lon="2.34987">
        <ele>47</ele>
        <time>2016-04-18T18:22:29Z</time>
      </trkpt>
      <trkpt lat="48.86195" lon="2.34998">
        <ele>47</ele>
        <time>2016-04-18T18:22:34Z</time>
      </trkpt>
      <trkpt lat="48.86213" lon="2.35004">
        <ele>47.400001525879</ele>
        <time>2016-04-18T18:22:38Z</time>
      </trkpt>
      <trkpt lat="48.86234" lon="2.3501">
        <ele>47.599998474121</ele>
        <time>2016-04-18T18:22:43Z</time>
      </trkpt>
      <trkpt lat="48.86244" lon="2.35014">
        <ele>47.79999923706</ele>
        <time>2016-04-18T18:22:45Z</time>
      </trkpt>
      <trkpt lat="48.86261" lon="2.35024">
        <ele>48.20000076294</ele>
        <time>2016-04-18T18:22:49Z</time>
      </trkpt>
      <trkpt lat="48.86266" lon="2.35025">
        <ele>48.20000076294</ele>
        <time>2016-04-18T18:22:50Z</time>
      </trkpt>
      <trkpt lat="48.86284" lon="2.35035">
        <ele>48.400001525879</ele>
        <time>2016-04-18T18:22:54Z</time>
      </trkpt>
      <trkpt lat="48.8629" lon="2.35043">
        <ele>48.400001525879</ele>
        <time>2016-04-18T18:22:55Z</time>
      </trkpt>
      <trkpt lat="48.86308" lon="2.35073">
        <ele>48.400001525879</ele>
        <time>2016-04-18T18:22:58Z</time>
      </trkpt>
      <trkpt lat="48.86314" lon="2.35084">
        <ele>48.400001525879</ele>
        <time>2016-04-18T18:22:59Z</time>
      </trkpt>
      <trkpt lat="48.86326" lon="2.35115">
        <ele>48</ele>
        <time>2016-04-18T18:23:15Z</time>
      </trkpt>
      <trkpt lat="48.86345" lon="2.35107">
        <ele>47.79999923706</ele>
        <time>2016-04-18T18:23:24Z</time>
      </trkpt>
      <trkpt lat="48.86366" lon="2.35108">
        <ele>47.599998474121</ele>
        <time>2016-04-18T18:23:29Z</time>
      </trkpt>
      <trkpt lat="48.86385" lon="2.35113">
        <ele>47.599998474121</ele>
        <time>2016-04-18T18:23:33Z</time>
      </trkpt>
      <trkpt lat="48.86404" lon="2.3512">
        <ele>47.400001525879</ele>
        <time>2016-04-18T18:23:37Z</time>
      </trkpt>
      <trkpt lat="48.86423" lon="2.3513">
        <ele>47</ele>
        <time>2016-04-18T18:23:41Z</time>
      </trkpt>
      <trkpt lat="48.86429" lon="2.35134">
        <ele>46.79999923706</ele>
        <time>2016-04-18T18:23:42Z</time>
      </trkpt>
      <trkpt lat="48.8645" lon="2.35147">
        <ele>46.599998474121</ele>
        <time>2016-04-18T18:23:46Z</time>
      </trkpt>
      <trkpt lat="48.86455" lon="2.35149">
        <ele>46.400001525879</ele>
        <time>2016-04-18T18:23:47Z</time>
      </trkpt>
      <trkpt lat="48.8647" lon="2.35154">
        <ele>46.20000076294</ele>
        <time>2016-04-18T18:23:50Z</time>
      </trkpt>
      <trkpt lat="48.86489" lon="2.35164">
        <ele>45.79999923706</ele>
        <time>2016-04-18T18:23:54Z</time>
      </trkpt>
      <trkpt lat="48.86501" lon="2.35172">
        <ele>45.79999923706</ele>
        <time>2016-04-18T18:23:56Z</time>
      </trkpt>
      <trkpt lat="48.86513" lon="2.35183">
        <ele>46</ele>
        <time>2016-04-18T18:23:58Z</time>
      </trkpt>
      <trkpt lat="48.86532" lon="2.35196">
        <ele>46.20000076294</ele>
        <time>2016-04-18T18:24:01Z</time>
      </trkpt>
      <trkpt lat="48.86549" lon="2.35207">
        <ele>46.79999923706</ele>
        <time>2016-04-18T18:24:04Z</time>
      </trkpt>
      <trkpt lat="48.86569" lon="2.35215">
        <ele>47.400001525879</ele>
        <time>2016-04-18T18:24:08Z</time>
      </trkpt>
      <trkpt lat="48.8659" lon="2.35229">
        <ele>48.20000076294</ele>
        <time>2016-04-18T18:24:12Z</time>
      </trkpt>
      <trkpt lat="48.86596" lon="2.35235">
        <ele>48.599998474121</ele>
        <time>2016-04-18T18:24:13Z</time>
      </trkpt>
      <trkpt lat="48.86605" lon="2.35241">
        <ele>49</ele>
        <time>2016-04-18T18:24:15Z</time>
      </trkpt>
      <trkpt lat="48.86624" lon="2.35251">
        <ele>49.20000076294</ele>
        <time>2016-04-18T18:24:19Z</time>
      </trkpt>
      <trkpt lat="48.86628" lon="2.35254">
        <ele>49.20000076294</ele>
        <time>2016-04-18T18:24:21Z</time>
      </trkpt>
      <trkpt lat="48.86629" lon="2.35255">
        <ele>49.20000076294</ele>
        <time>2016-04-18T18:24:22Z</time>
      </trkpt>
      <trkpt lat="48.86626" lon="2.35256">
        <ele>49.20000076294</ele>
        <time>2016-04-18T18:24:26Z</time>
      </trkpt>
      <trkpt lat="48.86619" lon="2.35258">
        <ele>49.20000076294</ele>
        <time>2016-04-18T18:24:31Z</time>
      </trkpt>
      <trkpt lat="48.86611" lon="2.35286">
        <ele>48.599998474121</ele>
        <time>2016-04-18T18:24:37Z</time>
      </trkpt>
      <trkpt lat="48.86609" lon="2.35301">
        <ele>48.400001525879</ele>
        <time>2016-04-18T18:24:39Z</time>
      </trkpt>
      <trkpt lat="48.86608" lon="2.35333">
        <ele>48</ele>
        <time>2016-04-18T18:24:42Z</time>
      </trkpt>
      <trkpt lat="48.86607" lon="2.35362">
        <ele>48</ele>
        <time>2016-04-18T18:24:45Z</time>
      </trkpt>
      <trkpt lat="48.86597" lon="2.3539">
        <ele>47.599998474121</ele>
        <time>2016-04-18T18:24:49Z</time>
      </trkpt>
      <trkpt lat="48.86586" lon="2.35417">
        <ele>48.20000076294</ele>
        <time>2016-04-18T18:24:52Z</time>
      </trkpt>
      <trkpt lat="48.86585" lon="2.35424">
        <ele>48</ele>
        <time>2016-04-18T18:24:53Z</time>
      </trkpt>
      <trkpt lat="48.8658" lon="2.35455">
        <ele>47.400001525879</ele>
        <time>2016-04-18T18:24:57Z</time>
      </trkpt>
      <trkpt lat="48.86577" lon="2.35486">
        <ele>47</ele>
        <time>2016-04-18T18:25:01Z</time>
      </trkpt>
      <trkpt lat="48.86576" lon="2.35517">
        <ele>46</ele>
        <time>2016-04-18T18:25:05Z</time>
      </trkpt>
      <trkpt lat="48.86573" lon="2.35537">
        <ele>44.79999923706</ele>
        <time>2016-04-18T18:25:07Z</time>
      </trkpt>
      <trkpt lat="48.86558" lon="2.35563">
        <ele>44.599998474121</ele>
        <time>2016-04-18T18:25:10Z</time>
      </trkpt>
      <trkpt lat="48.86552" lon="2.35591">
        <ele>44.599998474121</ele>
        <time>2016-04-18T18:25:15Z</time>
      </trkpt>
      <trkpt lat="48.86547" lon="2.35624">
        <ele>45.20000076294</ele>
        <time>2016-04-18T18:25:20Z</time>
      </trkpt>
      <trkpt lat="48.86539" lon="2.35657">
        <ele>45.400001525879</ele>
        <time>2016-04-18T18:25:25Z</time>
      </trkpt>
      <trkpt lat="48.86537" lon="2.35684">
        <ele>45.79999923706</ele>
        <time>2016-04-18T18:25:29Z</time>
      </trkpt>
      <trkpt lat="48.86531" lon="2.35711">
        <ele>45.400001525879</ele>
        <time>2016-04-18T18:25:33Z</time>
      </trkpt>
      <trkpt lat="48.86522" lon="2.35743">
        <ele>45</ele>
        <time>2016-04-18T18:25:38Z</time>
      </trkpt>
      <trkpt lat="48.86514" lon="2.35769">
        <ele>45.20000076294</ele>
        <time>2016-04-18T18:25:42Z</time>
      </trkpt>
      <trkpt lat="48.86507" lon="2.35797">
        <ele>45.599998474121</ele>
        <time>2016-04-18T18:25:46Z</time>
      </trkpt>
      <trkpt lat="48.86501" lon="2.35826">
        <ele>46</ele>
        <time>2016-04-18T18:25:50Z</time>
      </trkpt>
      <trkpt lat="48.86492" lon="2.35855">
        <ele>45.400001525879</ele>
        <time>2016-04-18T18:25:54Z</time>
      </trkpt>
      <trkpt lat="48.86485" lon="2.35884">
        <ele>45</ele>
        <time>2016-04-18T18:25:58Z</time>
      </trkpt>
      <trkpt lat="48.86481" lon="2.35896">
        <ele>45</ele>
        <time>2016-04-18T18:26:00Z</time>
      </trkpt>
      <trkpt lat="48.86476" lon="2.35908">
        <ele>45.20000076294</ele>
        <time>2016-04-18T18:26:02Z</time>
      </trkpt>
      <trkpt lat="48.86466" lon="2.35935">
        <ele>45.599998474121</ele>
        <time>2016-04-18T18:26:07Z</time>
      </trkpt>
      <trkpt lat="48.86464" lon="2.35944">
        <ele>45.599998474121</ele>
        <time>2016-04-18T18:26:09Z</time>
      </trkpt>
      <trkpt lat="48.86473" lon="2.35975">
        <ele>45</ele>
        <time>2016-04-18T18:26:17Z</time>
      </trkpt>
      <trkpt lat="48.86476" lon="2.35979">
        <ele>44.79999923706</ele>
        <time>2016-04-18T18:26:18Z</time>
      </trkpt>
      <trkpt lat="48.86492" lon="2.35999">
        <ele>44.599998474121</ele>
        <time>2016-04-18T18:26:22Z</time>
      </trkpt>
      <trkpt lat="48.86512" lon="2.36018">
        <ele>44.599998474121</ele>
        <time>2016-04-18T18:26:26Z</time>
      </trkpt>
      <trkpt lat="48.86529" lon="2.36034">
        <ele>44.599998474121</ele>
        <time>2016-04-18T18:26:29Z</time>
      </trkpt>
      <trkpt lat="48.86545" lon="2.36048">
        <ele>44.20000076294</ele>
        <time>2016-04-18T18:26:32Z</time>
      </trkpt>
      <trkpt lat="48.86562" lon="2.36061">
        <ele>43.79999923706</ele>
        <time>2016-04-18T18:26:35Z</time>
      </trkpt>
      <trkpt lat="48.86567" lon="2.36067">
        <ele>43.599998474121</ele>
        <time>2016-04-18T18:26:36Z</time>
      </trkpt>
      <trkpt lat="48.86584" lon="2.36081">
        <ele>43.20000076294</ele>
        <time>2016-04-18T18:26:39Z</time>
      </trkpt>
      <trkpt lat="48.86601" lon="2.36093">
        <ele>43.20000076294</ele>
        <time>2016-04-18T18:26:42Z</time>
      </trkpt>
      <trkpt lat="48.86618" lon="2.36107">
        <ele>43.599998474121</ele>
        <time>2016-04-18T18:26:45Z</time>
      </trkpt>
      <trkpt lat="48.86635" lon="2.36123">
        <ele>44.20000076294</ele>
        <time>2016-04-18T18:26:48Z</time>
      </trkpt>
      <trkpt lat="48.8664" lon="2.36131">
        <ele>44.400001525879</ele>
        <time>2016-04-18T18:26:49Z</time>
      </trkpt>
      <trkpt lat="48.8665" lon="2.36148">
        <ele>44.79999923706</ele>
        <time>2016-04-18T18:26:51Z</time>
      </trkpt>
      <trkpt lat="48.86658" lon="2.36168">
        <ele>45.20000076294</ele>
        <time>2016-04-18T18:26:53Z</time>
      </trkpt>
      <trkpt lat="48.86668" lon="2.36196">
        <ele>45.79999923706</ele>
        <time>2016-04-18T18:26:56Z</time>
      </trkpt>
      <trkpt lat="48.86678" lon="2.36219">
        <ele>46.400001525879</ele>
        <time>2016-04-18T18:26:59Z</time>
      </trkpt>
      <trkpt lat="48.8669" lon="2.3625">
        <ele>47</ele>
        <time>2016-04-18T18:27:03Z</time>
      </trkpt>
      <trkpt lat="48.86701" lon="2.3628">
        <ele>46.599998474121</ele>
        <time>2016-04-18T18:27:07Z</time>
      </trkpt>
      <trkpt lat="48.86708" lon="2.36305">
        <ele>46.599998474121</ele>
        <time>2016-04-18T18:27:11Z</time>
      </trkpt>
      <trkpt lat="48.86714" lon="2.36324">
        <ele>46.400001525879</ele>
        <time>2016-04-18T18:27:15Z</time>
      </trkpt>
      <trkpt lat="48.86722" lon="2.36344">
        <ele>45.599998474121</ele>
        <time>2016-04-18T18:27:39Z</time>
      </trkpt>
      <trkpt lat="48.86711" lon="2.36369">
        <ele>45.20000076294</ele>
        <time>2016-04-18T18:27:45Z</time>
      </trkpt>
      <trkpt lat="48.86697" lon="2.36394">
        <ele>44</ele>
        <time>2016-04-18T18:27:50Z</time>
      </trkpt>
      <trkpt lat="48.86681" lon="2.36419">
        <ele>43.400001525879</ele>
        <time>2016-04-18T18:27:54Z</time>
      </trkpt>
      <trkpt lat="48.86667" lon="2.36444">
        <ele>43.79999923706</ele>
        <time>2016-04-18T18:27:58Z</time>
      </trkpt>
      <trkpt lat="48.86654" lon="2.36465">
        <ele>44.20000076294</ele>
        <time>2016-04-18T18:28:02Z</time>
      </trkpt>
      <trkpt lat="48.86649" lon="2.36482">
        <ele>44.20000076294</ele>
        <time>2016-04-18T18:28:05Z</time>
      </trkpt>
      <trkpt lat="48.86654" lon="2.36509">
        <ele>44</ele>
        <time>2016-04-18T18:28:11Z</time>
      </trkpt>
      <trkpt lat="48.86647" lon="2.36529">
        <ele>45.599998474121</ele>
        <time>2016-04-18T18:28:17Z</time>
      </trkpt>
      <trkpt lat="48.86633" lon="2.36548">
        <ele>46.400001525879</ele>
        <time>2016-04-18T18:28:22Z</time>
      </trkpt>
      <trkpt lat="48.86617" lon="2.36571">
        <ele>46.79999923706</ele>
        <time>2016-04-18T18:28:27Z</time>
      </trkpt>
      <trkpt lat="48.86601" lon="2.36588">
        <ele>47</ele>
        <time>2016-04-18T18:28:31Z</time>
      </trkpt>
      <trkpt lat="48.86583" lon="2.36611">
        <ele>46.599998474121</ele>
        <time>2016-04-18T18:28:35Z</time>
      </trkpt>
      <trkpt lat="48.8657" lon="2.3663">
        <ele>46.400001525879</ele>
        <time>2016-04-18T18:28:38Z</time>
      </trkpt>
      <trkpt lat="48.86556" lon="2.36651">
        <ele>45.79999923706</ele>
        <time>2016-04-18T18:28:41Z</time>
      </trkpt>
      <trkpt lat="48.86542" lon="2.36674">
        <ele>45.400001525879</ele>
        <time>2016-04-18T18:28:44Z</time>
      </trkpt>
      <trkpt lat="48.86526" lon="2.36699">
        <ele>45.400001525879</ele>
        <time>2016-04-18T18:28:48Z</time>
      </trkpt>
      <trkpt lat="48.86514" lon="2.36737">
        <ele>46</ele>
        <time>2016-04-18T18:28:52Z</time>
      </trkpt>
      <trkpt lat="48.86508" lon="2.36755">
        <ele>46.20000076294</ele>
        <time>2016-04-18T18:28:54Z</time>
      </trkpt>
      <trkpt lat="48.86499" lon="2.36782">
        <ele>46.79999923706</ele>
        <time>2016-04-18T18:28:57Z</time>
      </trkpt>
      <trkpt lat="48.86488" lon="2.36812">
        <ele>47.20000076294</ele>
        <time>2016-04-18T18:29:01Z</time>
      </trkpt>
      <trkpt lat="48.8648" lon="2.36831">
        <ele>47</ele>
        <time>2016-04-18T18:29:04Z</time>
      </trkpt>
      <trkpt lat="48.86461" lon="2.36847">
        <ele>46.400001525879</ele>
        <time>2016-04-18T18:29:08Z</time>
      </trkpt>
      <trkpt lat="48.86442" lon="2.36858">
        <ele>46</ele>
        <time>2016-04-18T18:29:12Z</time>
      </trkpt>
      <trkpt lat="48.86439" lon="2.36864">
        <ele>46</ele>
        <time>2016-04-18T18:29:13Z</time>
      </trkpt>
      <trkpt lat="48.86425" lon="2.36893">
        <ele>45.400001525879</ele>
        <time>2016-04-18T18:29:17Z</time>
      </trkpt>
      <trkpt lat="48.86411" lon="2.36918">
        <ele>45.599998474121</ele>
        <time>2016-04-18T18:29:20Z</time>
      </trkpt>
      <trkpt lat="48.86394" lon="2.36947">
        <ele>44.599998474121</ele>
        <time>2016-04-18T18:29:23Z</time>
      </trkpt>
      <trkpt lat="48.86383" lon="2.36975">
        <ele>45</ele>
        <time>2016-04-18T18:29:26Z</time>
      </trkpt>
      <trkpt lat="48.86379" lon="2.3699">
        <ele>45.400001525879</ele>
        <time>2016-04-18T18:29:28Z</time>
      </trkpt>
      <trkpt lat="48.86377" lon="2.36998">
        <ele>45.400001525879</ele>
        <time>2016-04-18T18:29:31Z</time>
      </trkpt>
      <trkpt lat="48.86375" lon="2.36999">
        <ele>45.400001525879</ele>
        <time>2016-04-18T18:29:35Z</time>
      </trkpt>
      <trkpt lat="48.86374" lon="2.36999">
        <ele>45.599998474121</ele>
        <time>2016-04-18T18:29:36Z</time>
      </trkpt>
      <trkpt lat="48.86364" lon="2.37019">
        <ele>45.20000076294</ele>
        <time>2016-04-18T18:29:58Z</time>
      </trkpt>
      <trkpt lat="48.86351" lon="2.37046">
        <ele>44.599998474121</ele>
        <time>2016-04-18T18:30:03Z</time>
      </trkpt>
      <trkpt lat="48.86338" lon="2.37068">
        <ele>43.599998474121</ele>
        <time>2016-04-18T18:30:07Z</time>
      </trkpt>
      <trkpt lat="48.86329" lon="2.37092">
        <ele>43.599998474121</ele>
        <time>2016-04-18T18:30:12Z</time>
      </trkpt>
      <trkpt lat="48.86319" lon="2.37116">
        <ele>43.599998474121</ele>
        <time>2016-04-18T18:30:17Z</time>
      </trkpt>
      <trkpt lat="48.86309" lon="2.3714">
        <ele>43.79999923706</ele>
        <time>2016-04-18T18:30:21Z</time>
      </trkpt>
      <trkpt lat="48.86294" lon="2.37164">
        <ele>44</ele>
        <time>2016-04-18T18:30:25Z</time>
      </trkpt>
      <trkpt lat="48.86277" lon="2.37182">
        <ele>44.20000076294</ele>
        <time>2016-04-18T18:30:28Z</time>
      </trkpt>
      <trkpt lat="48.86255" lon="2.37201">
        <ele>44.400001525879</ele>
        <time>2016-04-18T18:30:31Z</time>
      </trkpt>
      <trkpt lat="48.86243" lon="2.37226">
        <ele>44.79999923706</ele>
        <time>2016-04-18T18:30:34Z</time>
      </trkpt>
      <trkpt lat="48.8623" lon="2.37248">
        <ele>45</ele>
        <time>2016-04-18T18:30:38Z</time>
      </trkpt>
      <trkpt lat="48.86225" lon="2.37254">
        <ele>45</ele>
        <time>2016-04-18T18:30:41Z</time>
      </trkpt>
      <trkpt lat="48.8622" lon="2.37269">
        <ele>45.20000076294</ele>
        <time>2016-04-18T18:31:08Z</time>
      </trkpt>
      <trkpt lat="48.86212" lon="2.37275">
        <ele>45.400001525879</ele>
        <time>2016-04-18T18:31:10Z</time>
      </trkpt>
      <trkpt lat="48.86204" lon="2.37281">
        <ele>45.599998474121</ele>
        <time>2016-04-18T18:31:12Z</time>
      </trkpt>
      <trkpt lat="48.86193" lon="2.37297">
        <ele>46.20000076294</ele>
        <time>2016-04-18T18:31:16Z</time>
      </trkpt>
      <trkpt lat="48.86179" lon="2.37309">
        <ele>46.400001525879</ele>
        <time>2016-04-18T18:31:20Z</time>
      </trkpt>
      <trkpt lat="48.86164" lon="2.37327">
        <ele>46.400001525879</ele>
        <time>2016-04-18T18:31:25Z</time>
      </trkpt>
      <trkpt lat="48.86151" lon="2.3735">
        <ele>45.599998474121</ele>
        <time>2016-04-18T18:31:29Z</time>
      </trkpt>
      <trkpt lat="48.86141" lon="2.37375">
        <ele>45</ele>
        <time>2016-04-18T18:31:33Z</time>
      </trkpt>
      <trkpt lat="48.86136" lon="2.37388">
        <ele>44.599998474121</ele>
        <time>2016-04-18T18:31:35Z</time>
      </trkpt>
      <trkpt lat="48.86129" lon="2.37401">
        <ele>44.400001525879</ele>
        <time>2016-04-18T18:31:37Z</time>
      </trkpt>
      <trkpt lat="48.8612" lon="2.37434">
        <ele>44</ele>
        <time>2016-04-18T18:31:40Z</time>
      </trkpt>
      <trkpt lat="48.86112" lon="2.37442">
        <ele>43.599998474121</ele>
        <time>2016-04-18T18:31:41Z</time>
      </trkpt>
      <trkpt lat="48.86095" lon="2.37465">
        <ele>42.599998474121</ele>
        <time>2016-04-18T18:31:44Z</time>
      </trkpt>
      <trkpt lat="48.86086" lon="2.37499">
        <ele>42.400001525879</ele>
        <time>2016-04-18T18:31:48Z</time>
      </trkpt>
      <trkpt lat="48.86069" lon="2.37521">
        <ele>43.20000076294</ele>
        <time>2016-04-18T18:31:53Z</time>
      </trkpt>
      <trkpt lat="48.86067" lon="2.37523">
        <ele>43.20000076294</ele>
        <time>2016-04-18T18:31:54Z</time>
      </trkpt>
      <trkpt lat="48.86077" lon="2.3754">
        <ele>43.20000076294</ele>
        <time>2016-04-18T18:32:17Z</time>
      </trkpt>
      <trkpt lat="48.86085" lon="2.37568">
        <ele>43.599998474121</ele>
        <time>2016-04-18T18:32:22Z</time>
      </trkpt>
      <trkpt lat="48.86092" lon="2.37594">
        <ele>44.20000076294</ele>
        <time>2016-04-18T18:32:26Z</time>
      </trkpt>
      <trkpt lat="48.86105" lon="2.37623">
        <ele>45</ele>
        <time>2016-04-18T18:32:30Z</time>
      </trkpt>
      <trkpt lat="48.86116" lon="2.37644">
        <ele>46.20000076294</ele>
        <time>2016-04-18T18:32:33Z</time>
      </trkpt>
      <trkpt lat="48.8613" lon="2.37666">
        <ele>47.400001525879</ele>
        <time>2016-04-18T18:32:36Z</time>
      </trkpt>
      <trkpt lat="48.86138" lon="2.37678">
        <ele>47.599998474121</ele>
        <time>2016-04-18T18:32:38Z</time>
      </trkpt>
      <trkpt lat="48.86152" lon="2.377">
        <ele>48</ele>
        <time>2016-04-18T18:32:43Z</time>
      </trkpt>
      <trkpt lat="48.86157" lon="2.37712">
        <ele>48.20000076294</ele>
        <time>2016-04-18T18:32:45Z</time>
      </trkpt>
      <trkpt lat="48.86161" lon="2.37735">
        <ele>49</ele>
        <time>2016-04-18T18:32:49Z</time>
      </trkpt>
      <trkpt lat="48.86172" lon="2.37757">
        <ele>49.79999923706</ele>
        <time>2016-04-18T18:32:54Z</time>
      </trkpt>
      <trkpt lat="48.86182" lon="2.37782">
        <ele>50.400001525879</ele>
        <time>2016-04-18T18:32:59Z</time>
      </trkpt>
      <trkpt lat="48.86199" lon="2.37813">
        <ele>51.599998474121</ele>
        <time>2016-04-18T18:33:04Z</time>
      </trkpt>
      <trkpt lat="48.86212" lon="2.37836">
        <ele>52.599998474121</ele>
        <time>2016-04-18T18:33:08Z</time>
      </trkpt>
      <trkpt lat="48.86224" lon="2.3786">
        <ele>53.20000076294</ele>
        <time>2016-04-18T18:33:13Z</time>
      </trkpt>
      <trkpt lat="48.86235" lon="2.37888">
        <ele>53.599998474121</ele>
        <time>2016-04-18T18:33:18Z</time>
      </trkpt>
      <trkpt lat="48.86238" lon="2.37892">
        <ele>53.599998474121</ele>
        <time>2016-04-18T18:33:19Z</time>
      </trkpt>
      <trkpt lat="48.86251" lon="2.3792">
        <ele>54</ele>
        <time>2016-04-18T18:33:24Z</time>
      </trkpt>
      <trkpt lat="48.86259" lon="2.37942">
        <ele>54.599998474121</ele>
        <time>2016-04-18T18:33:29Z</time>
      </trkpt>
      <trkpt lat="48.86261" lon="2.37951">
        <ele>54.79999923706</ele>
        <time>2016-04-18T18:33:35Z</time>
      </trkpt>
      <trkpt lat="48.86263" lon="2.3795">
        <ele>55</ele>
        <time>2016-04-18T18:33:40Z</time>
      </trkpt>
      <trkpt lat="48.86269" lon="2.37946">
        <ele>55.20000076294</ele>
        <time>2016-04-18T18:33:44Z</time>
      </trkpt>
      <trkpt lat="48.86286" lon="2.37933">
        <ele>55.599998474121</ele>
        <time>2016-04-18T18:33:51Z</time>
      </trkpt>
      <trkpt lat="48.86293" lon="2.37931">
        <ele>55.79999923706</ele>
        <time>2016-04-18T18:33:54Z</time>
      </trkpt>
      <trkpt lat="48.86305" lon="2.37951">
        <ele>56.599998474121</ele>
        <time>2016-04-18T18:34:00Z</time>
      </trkpt>
      <trkpt lat="48.86308" lon="2.37954">
        <ele>56.79999923706</ele>
        <time>2016-04-18T18:34:01Z</time>
      </trkpt>
      <trkpt lat="48.86321" lon="2.37974">
        <ele>57.400001525879</ele>
        <time>2016-04-18T18:34:06Z</time>
      </trkpt>
      <trkpt lat="48.86332" lon="2.37999">
        <ele>58</ele>
        <time>2016-04-18T18:34:11Z</time>
      </trkpt>
      <trkpt lat="48.86343" lon="2.38024">
        <ele>58</ele>
        <time>2016-04-18T18:34:16Z</time>
      </trkpt>
      <trkpt lat="48.86356" lon="2.38051">
        <ele>57.599998474121</ele>
        <time>2016-04-18T18:34:21Z</time>
      </trkpt>
      <trkpt lat="48.86369" lon="2.38074">
        <ele>57.400001525879</ele>
        <time>2016-04-18T18:34:25Z</time>
      </trkpt>
      <trkpt lat="48.86376" lon="2.381">
        <ele>57.400001525879</ele>
        <time>2016-04-18T18:34:32Z</time>
      </trkpt>
      <trkpt lat="48.86391" lon="2.38129">
        <ele>57.79999923706</ele>
        <time>2016-04-18T18:34:46Z</time>
      </trkpt>
      <trkpt lat="48.86411" lon="2.38122">
        <ele>58.400001525879</ele>
        <time>2016-04-18T18:35:06Z</time>
      </trkpt>
      <trkpt lat="48.8642" lon="2.38136">
        <ele>58.599998474121</ele>
        <time>2016-04-18T18:35:10Z</time>
      </trkpt>
      <trkpt lat="48.86428" lon="2.38164">
        <ele>58.599998474121</ele>
        <time>2016-04-18T18:35:15Z</time>
      </trkpt>
      <trkpt lat="48.86438" lon="2.38192">
        <ele>59.20000076294</ele>
        <time>2016-04-18T18:35:19Z</time>
      </trkpt>
      <trkpt lat="48.86449" lon="2.3822">
        <ele>59.599998474121</ele>
        <time>2016-04-18T18:35:23Z</time>
      </trkpt>
      <trkpt lat="48.86459" lon="2.38244">
        <ele>60</ele>
        <time>2016-04-18T18:35:27Z</time>
      </trkpt>
      <trkpt lat="48.86467" lon="2.38262">
        <ele>59.79999923706</ele>
        <time>2016-04-18T18:35:30Z</time>
      </trkpt>
      <trkpt lat="48.8647" lon="2.38295">
        <ele>59.20000076294</ele>
        <time>2016-04-18T18:35:34Z</time>
      </trkpt>
      <trkpt lat="48.86478" lon="2.38321">
        <ele>58.79999923706</ele>
        <time>2016-04-18T18:35:38Z</time>
      </trkpt>
      <trkpt lat="48.86486" lon="2.38355">
        <ele>59.400001525879</ele>
        <time>2016-04-18T18:35:42Z</time>
      </trkpt>
      <trkpt lat="48.86499" lon="2.38382">
        <ele>60.599998474121</ele>
        <time>2016-04-18T18:35:45Z</time>
      </trkpt>
      <trkpt lat="48.86507" lon="2.38409">
        <ele>61.400001525879</ele>
        <time>2016-04-18T18:35:48Z</time>
      </trkpt>
      <trkpt lat="48.86512" lon="2.38433">
        <ele>61.79999923706</ele>
        <time>2016-04-18T18:35:52Z</time>
      </trkpt>
      <trkpt lat="48.86519" lon="2.38453">
        <ele>62.400001525879</ele>
        <time>2016-04-18T18:36:10Z</time>
      </trkpt>
      <trkpt lat="48.86527" lon="2.38483">
        <ele>62.79999923706</ele>
        <time>2016-04-18T18:36:30Z</time>
      </trkpt>
      <trkpt lat="48.86533" lon="2.38501">
        <ele>63</ele>
        <time>2016-04-18T18:36:34Z</time>
      </trkpt>
      <trkpt lat="48.86542" lon="2.38529">
        <ele>63</ele>
        <time>2016-04-18T18:36:40Z</time>
      </trkpt>
      <trkpt lat="48.86553" lon="2.38553">
        <ele>63</ele>
        <time>2016-04-18T18:36:45Z</time>
      </trkpt>
      <trkpt lat="48.86565" lon="2.38584">
        <ele>63</ele>
        <time>2016-04-18T18:36:50Z</time>
      </trkpt>
      <trkpt lat="48.86573" lon="2.3861">
        <ele>63.400001525879</ele>
        <time>2016-04-18T18:36:56Z</time>
      </trkpt>
      <trkpt lat="48.86577" lon="2.38612">
        <ele>63.400001525879</ele>
        <time>2016-04-18T18:36:58Z</time>
      </trkpt>
      <trkpt lat="48.86588" lon="2.3861">
        <ele>63.400001525879</ele>
        <time>2016-04-18T18:37:03Z</time>
      </trkpt>
      <trkpt lat="48.86604" lon="2.38592">
        <ele>63.20000076294</ele>
        <time>2016-04-18T18:37:11Z</time>
      </trkpt>
      <trkpt lat="48.86619" lon="2.38574">
        <ele>63</ele>
        <time>2016-04-18T18:37:18Z</time>
      </trkpt>
      <trkpt lat="48.86624" lon="2.38581">
        <ele>63</ele>
        <time>2016-04-18T18:37:22Z</time>
      </trkpt>
      <trkpt lat="48.86635" lon="2.38604">
        <ele>63.20000076294</ele>
        <time>2016-04-18T18:37:27Z</time>
      </trkpt>
      <trkpt lat="48.86648" lon="2.38632">
        <ele>63.599998474121</ele>
        <time>2016-04-18T18:37:31Z</time>
      </trkpt>
      <trkpt lat="48.86659" lon="2.3866">
        <ele>64</ele>
        <time>2016-04-18T18:37:34Z</time>
      </trkpt>
      <trkpt lat="48.86666" lon="2.38685">
        <ele>64.800003051758</ele>
        <time>2016-04-18T18:37:37Z</time>
      </trkpt>
      <trkpt lat="48.8667" lon="2.38715">
        <ele>65.800003051758</ele>
        <time>2016-04-18T18:37:41Z</time>
      </trkpt>
      <trkpt lat="48.86673" lon="2.3872">
        <ele>66</ele>
        <time>2016-04-18T18:37:42Z</time>
      </trkpt>
      <trkpt lat="48.8668" lon="2.38746">
        <ele>67</ele>
        <time>2016-04-18T18:37:46Z</time>
      </trkpt>
      <trkpt lat="48.86688" lon="2.38776">
        <ele>68.599998474121</ele>
        <time>2016-04-18T18:37:51Z</time>
      </trkpt>
      <trkpt lat="48.86695" lon="2.38796">
        <ele>69.800003051758</ele>
        <time>2016-04-18T18:37:54Z</time>
      </trkpt>
      <trkpt lat="48.86709" lon="2.38823">
        <ele>71</ele>
        <time>2016-04-18T18:37:59Z</time>
      </trkpt>
      <trkpt lat="48.86719" lon="2.38852">
        <ele>72</ele>
        <time>2016-04-18T18:38:04Z</time>
      </trkpt>
      <trkpt lat="48.86726" lon="2.38868">
        <ele>72.400001525879</ele>
        <time>2016-04-18T18:38:07Z</time>
      </trkpt>
      <trkpt lat="48.86729" lon="2.38885">
        <ele>72.800003051758</ele>
        <time>2016-04-18T18:38:10Z</time>
      </trkpt>
      <trkpt lat="48.86731" lon="2.38896">
        <ele>73</ele>
        <time>2016-04-18T18:38:14Z</time>
      </trkpt>
      <trkpt lat="48.86733" lon="2.38923">
        <ele>73.599998474121</ele>
        <time>2016-04-18T18:38:48Z</time>
      </trkpt>
      <trkpt lat="48.8674" lon="2.38951">
        <ele>74.199996948242</ele>
        <time>2016-04-18T18:38:54Z</time>
      </trkpt>
      <trkpt lat="48.86747" lon="2.3898">
        <ele>74.599998474121</ele>
        <time>2016-04-18T18:39:00Z</time>
      </trkpt>
      <trkpt lat="48.86751" lon="2.39007">
        <ele>75.199996948242</ele>
        <time>2016-04-18T18:39:08Z</time>
      </trkpt>
      <trkpt lat="48.86748" lon="2.39017">
        <ele>75.800003051758</ele>
        <time>2016-04-18T18:39:14Z</time>
      </trkpt>
      <trkpt lat="48.86743" lon="2.39025">
        <ele>76.199996948242</ele>
        <time>2016-04-18T18:39:21Z</time>
      </trkpt>
      <trkpt lat="48.86742" lon="2.39028">
        <ele>76.400001525879</ele>
        <time>2016-04-18T18:39:23Z</time>
      </trkpt>
      <trkpt lat="48.86741" lon="2.39032">
        <ele>76.599998474121</ele>
        <time>2016-04-18T18:39:27Z</time>
      </trkpt>
      <trkpt lat="48.86744" lon="2.39042">
        <ele>77.400001525879</ele>
        <time>2016-04-18T18:39:45Z</time>
      </trkpt>
      <trkpt lat="48.86742" lon="2.39049">
        <ele>78</ele>
        <time>2016-04-18T18:39:53Z</time>
      </trkpt>
      <trkpt lat="48.86726" lon="2.39056">
        <ele>78.400001525879</ele>
        <time>2016-04-18T18:40:03Z</time>
      </trkpt>
      <trkpt lat="48.86728" lon="2.39062">
        <ele>78.800003051758</ele>
        <time>2016-04-18T18:40:08Z</time>
      </trkpt>
      <trkpt lat="48.86729" lon="2.39063">
        <ele>79</ele>
        <time>2016-04-18T18:40:10Z</time>
      </trkpt>
      <trkpt lat="48.86731" lon="2.39056">
        <ele>78.400001525879</ele>
        <time>2016-04-18T18:41:02Z</time>
      </trkpt>
      <trkpt lat="48.86723" lon="2.39076">
        <ele>80</ele>
        <time>2016-04-18T18:41:46Z</time>
      </trkpt>
      <trkpt lat="48.86706" lon="2.39099">
        <ele>80.800003051758</ele>
        <time>2016-04-18T18:41:51Z</time>
      </trkpt>
      <trkpt lat="48.86689" lon="2.3912">
        <ele>82.400001525879</ele>
        <time>2016-04-18T18:41:55Z</time>
      </trkpt>
      <trkpt lat="48.86676" lon="2.39141">
        <ele>82.800003051758</ele>
        <time>2016-04-18T18:41:59Z</time>
      </trkpt>
      <trkpt lat="48.86663" lon="2.39164">
        <ele>84.199996948242</ele>
        <time>2016-04-18T18:42:03Z</time>
      </trkpt>
      <trkpt lat="48.86649" lon="2.39191">
        <ele>85</ele>
        <time>2016-04-18T18:42:07Z</time>
      </trkpt>
      <trkpt lat="48.86634" lon="2.39218">
        <ele>85.599998474121</ele>
        <time>2016-04-18T18:42:11Z</time>
      </trkpt>
      <trkpt lat="48.86618" lon="2.39243">
        <ele>86</ele>
        <time>2016-04-18T18:42:15Z</time>
      </trkpt>
      <trkpt lat="48.86605" lon="2.39262">
        <ele>86.400001525879</ele>
        <time>2016-04-18T18:42:19Z</time>
      </trkpt>
      <trkpt lat="48.86589" lon="2.39283">
        <ele>86</ele>
        <time>2016-04-18T18:42:23Z</time>
      </trkpt>
      <trkpt lat="48.86571" lon="2.39306">
        <ele>86</ele>
        <time>2016-04-18T18:42:27Z</time>
      </trkpt>
      <trkpt lat="48.86556" lon="2.39328">
        <ele>87</ele>
        <time>2016-04-18T18:42:31Z</time>
      </trkpt>
      <trkpt lat="48.86541" lon="2.39349">
        <ele>87.599998474121</ele>
        <time>2016-04-18T18:42:35Z</time>
      </trkpt>
      <trkpt lat="48.86526" lon="2.39371">
        <ele>86.599998474121</ele>
        <time>2016-04-18T18:42:39Z</time>
      </trkpt>
      <trkpt lat="48.86512" lon="2.39392">
        <ele>87.400001525879</ele>
        <time>2016-04-18T18:42:44Z</time>
      </trkpt>
      <trkpt lat="48.86505" lon="2.39401">
        <ele>87.800003051758</ele>
        <time>2016-04-18T18:42:48Z</time>
      </trkpt>
      <trkpt lat="48.86504" lon="2.39403">
        <ele>88</ele>
        <time>2016-04-18T18:42:49Z</time>
      </trkpt>
      <trkpt lat="48.865" lon="2.39411">
        <ele>88</ele>
        <time>2016-04-18T18:42:53Z</time>
      </trkpt>
      <trkpt lat="48.86499" lon="2.39417">
        <ele>88.199996948242</ele>
        <time>2016-04-18T18:42:59Z</time>
      </trkpt>
      <trkpt lat="48.865" lon="2.39422">
        <ele>88.400001525879</ele>
        <time>2016-04-18T18:43:19Z</time>
      </trkpt>
      <trkpt lat="48.86503" lon="2.39434">
        <ele>88.800003051758</ele>
        <time>2016-04-18T18:43:24Z</time>
      </trkpt>
      <trkpt lat="48.86506" lon="2.39436">
        <ele>88.800003051758</ele>
        <time>2016-04-18T18:43:25Z</time>
      </trkpt>
      <trkpt lat="48.86521" lon="2.39451">
        <ele>88.800003051758</ele>
        <time>2016-04-18T18:43:33Z</time>
      </trkpt>
      <trkpt lat="48.86536" lon="2.39467">
        <ele>90.199996948242</ele>
        <time>2016-04-18T18:43:41Z</time>
      </trkpt>
      <trkpt lat="48.86552" lon="2.39452">
        <ele>90.199996948242</ele>
        <time>2016-04-18T18:43:48Z</time>
      </trkpt>
      <trkpt lat="48.86568" lon="2.39437">
        <ele>90.800003051758</ele>
        <time>2016-04-18T18:43:54Z</time>
      </trkpt>
      <trkpt lat="48.86583" lon="2.39418">
        <ele>91.400001525879</ele>
        <time>2016-04-18T18:44:04Z</time>
      </trkpt>
      <trkpt lat="48.86599" lon="2.39395">
        <ele>91.800003051758</ele>
        <time>2016-04-18T18:44:10Z</time>
      </trkpt>
      <trkpt lat="48.86615" lon="2.3937">
        <ele>91.800003051758</ele>
        <time>2016-04-18T18:44:15Z</time>
      </trkpt>
      <trkpt lat="48.86629" lon="2.39349">
        <ele>91.800003051758</ele>
        <time>2016-04-18T18:44:20Z</time>
      </trkpt>
      <trkpt lat="48.86637" lon="2.3934">
        <ele>91.599998474121</ele>
        <time>2016-04-18T18:44:24Z</time>
      </trkpt>
      <trkpt lat="48.86637" lon="2.39339">
        <ele>91.599998474121</ele>
        <time>2016-04-18T18:44:27Z</time>
      </trkpt>
      <trkpt lat="48.86631" lon="2.39345">
        <ele>91.599998474121</ele>
        <time>2016-04-18T18:44:32Z</time>
      </trkpt>
      <trkpt lat="48.86612" lon="2.39362">
        <ele>91</ele>
        <time>2016-04-18T18:44:38Z</time>
      </trkpt>
      <trkpt lat="48.86597" lon="2.39382">
        <ele>91.199996948242</ele>
        <time>2016-04-18T18:44:42Z</time>
      </trkpt>
      <trkpt lat="48.86585" lon="2.39412">
        <ele>91.400001525879</ele>
        <time>2016-04-18T18:44:47Z</time>
      </trkpt>
      <trkpt lat="48.86582" lon="2.39441">
        <ele>91.800003051758</ele>
        <time>2016-04-18T18:44:53Z</time>
      </trkpt>
      <trkpt lat="48.86597" lon="2.39426">
        <ele>92.599998474121</ele>
        <time>2016-04-18T18:44:59Z</time>
      </trkpt>
      <trkpt lat="48.86615" lon="2.39408">
        <ele>93.400001525879</ele>
        <time>2016-04-18T18:45:04Z</time>
      </trkpt>
      <trkpt lat="48.86628" lon="2.39384">
        <ele>93.599998474121</ele>
        <time>2016-04-18T18:45:09Z</time>
      </trkpt>
      <trkpt lat="48.8664" lon="2.39367">
        <ele>94</ele>
        <time>2016-04-18T18:45:16Z</time>
      </trkpt>
      <trkpt lat="48.86649" lon="2.39375">
        <ele>95.199996948242</ele>
        <time>2016-04-18T18:46:07Z</time>
      </trkpt>
      <trkpt lat="48.86665" lon="2.39396">
        <ele>97.800003051758</ele>
        <time>2016-04-18T18:46:12Z</time>
      </trkpt>
      <trkpt lat="48.86672" lon="2.39404">
        <ele>98.800003051758</ele>
        <time>2016-04-18T18:46:14Z</time>
      </trkpt>
      <trkpt lat="48.8669" lon="2.39422">
        <ele>101.19999694824</ele>
        <time>2016-04-18T18:46:19Z</time>
      </trkpt>
      <trkpt lat="48.867" lon="2.39435">
        <ele>101.40000152588</ele>
        <time>2016-04-18T18:46:22Z</time>
      </trkpt>
      <trkpt lat="48.86705" lon="2.39443">
        <ele>101.59999847412</ele>
        <time>2016-04-18T18:46:24Z</time>
      </trkpt>
      <trkpt lat="48.86722" lon="2.39456">
        <ele>102</ele>
        <time>2016-04-18T18:46:29Z</time>
      </trkpt>
      <trkpt lat="48.86737" lon="2.39473">
        <ele>102.40000152588</ele>
        <time>2016-04-18T18:46:33Z</time>
      </trkpt>
      <trkpt lat="48.8675" lon="2.39499">
        <ele>103</ele>
        <time>2016-04-18T18:46:38Z</time>
      </trkpt>
      <trkpt lat="48.8676" lon="2.39517">
        <ele>103</ele>
        <time>2016-04-18T18:46:42Z</time>
      </trkpt>
      <trkpt lat="48.86774" lon="2.39535">
        <ele>103</ele>
        <time>2016-04-18T18:46:47Z</time>
      </trkpt>
      <trkpt lat="48.86775" lon="2.39537">
        <ele>103.19999694824</ele>
        <time>2016-04-18T18:46:48Z</time>
      </trkpt>
      <trkpt lat="48.86781" lon="2.39554">
        <ele>103.40000152588</ele>
        <time>2016-04-18T18:47:12Z</time>
      </trkpt>
      <trkpt lat="48.86799" lon="2.39552">
        <ele>104.19999694824</ele>
        <time>2016-04-18T18:47:28Z</time>
      </trkpt>
      <trkpt lat="48.86814" lon="2.39531">
        <ele>104.59999847412</ele>
        <time>2016-04-18T18:47:33Z</time>
      </trkpt>
      <trkpt lat="48.86823" lon="2.39504">
        <ele>103.80000305176</ele>
        <time>2016-04-18T18:47:37Z</time>
      </trkpt>
      <trkpt lat="48.86836" lon="2.39481">
        <ele>103.59999847412</ele>
        <time>2016-04-18T18:47:42Z</time>
      </trkpt>
      <trkpt lat="48.8684" lon="2.39461">
        <ele>102.80000305176</ele>
        <time>2016-04-18T18:47:45Z</time>
      </trkpt>
      <trkpt lat="48.86843" lon="2.39432">
        <ele>101.80000305176</ele>
        <time>2016-04-18T18:47:49Z</time>
      </trkpt>
      <trkpt lat="48.8685" lon="2.39421">
        <ele>101.19999694824</ele>
        <time>2016-04-18T18:47:52Z</time>
      </trkpt>
      <trkpt lat="48.86871" lon="2.39409">
        <ele>101.40000152588</ele>
        <time>2016-04-18T18:47:58Z</time>
      </trkpt>
      <trkpt lat="48.86874" lon="2.39405">
        <ele>101.40000152588</ele>
        <time>2016-04-18T18:47:59Z</time>
      </trkpt>
      <trkpt lat="48.8689" lon="2.39392">
        <ele>101.59999847412</ele>
        <time>2016-04-18T18:48:05Z</time>
      </trkpt>
      <trkpt lat="48.86903" lon="2.39373">
        <ele>101.80000305176</ele>
        <time>2016-04-18T18:48:10Z</time>
      </trkpt>
      <trkpt lat="48.86918" lon="2.39355">
        <ele>102.19999694824</ele>
        <time>2016-04-18T18:48:15Z</time>
      </trkpt>
      <trkpt lat="48.86933" lon="2.39336">
        <ele>102.80000305176</ele>
        <time>2016-04-18T18:48:20Z</time>
      </trkpt>
      <trkpt lat="48.86949" lon="2.39319">
        <ele>102.59999847412</ele>
        <time>2016-04-18T18:48:28Z</time>
      </trkpt>
      <trkpt lat="48.86965" lon="2.39342">
        <ele>104</ele>
        <time>2016-04-18T18:48:32Z</time>
      </trkpt>
      <trkpt lat="48.86976" lon="2.39373">
        <ele>105.19999694824</ele>
        <time>2016-04-18T18:48:36Z</time>
      </trkpt>
      <trkpt lat="48.86978" lon="2.39381">
        <ele>105.40000152588</ele>
        <time>2016-04-18T18:48:37Z</time>
      </trkpt>
      <trkpt lat="48.86989" lon="2.39409">
        <ele>106.19999694824</ele>
        <time>2016-04-18T18:48:41Z</time>
      </trkpt>
      <trkpt lat="48.86996" lon="2.3943">
        <ele>107.19999694824</ele>
        <time>2016-04-18T18:48:45Z</time>
      </trkpt>
      <trkpt lat="48.86997" lon="2.39439">
        <ele>107.59999847412</ele>
        <time>2016-04-18T18:48:49Z</time>
      </trkpt>
      <trkpt lat="48.87003" lon="2.39469">
        <ele>109</ele>
        <time>2016-04-18T18:49:07Z</time>
      </trkpt>
      <trkpt lat="48.87005" lon="2.39499">
        <ele>110.19999694824</ele>
        <time>2016-04-18T18:49:12Z</time>
      </trkpt>
      <trkpt lat="48.87006" lon="2.39506">
        <ele>110.59999847412</ele>
        <time>2016-04-18T18:49:13Z</time>
      </trkpt>
      <trkpt lat="48.87008" lon="2.39532">
        <ele>112.40000152588</ele>
        <time>2016-04-18T18:49:17Z</time>
      </trkpt>
      <trkpt lat="48.87013" lon="2.39558">
        <ele>114.19999694824</ele>
        <time>2016-04-18T18:49:21Z</time>
      </trkpt>
      <trkpt lat="48.87016" lon="2.39568">
        <ele>114.80000305176</ele>
        <time>2016-04-18T18:49:26Z</time>
      </trkpt>
      <trkpt lat="48.87032" lon="2.39553">
        <ele>114.80000305176</ele>
        <time>2016-04-18T18:49:32Z</time>
      </trkpt>
      <trkpt lat="48.87048" lon="2.39538">
        <ele>114.59999847412</ele>
        <time>2016-04-18T18:49:40Z</time>
      </trkpt>
      <trkpt lat="48.87049" lon="2.39539">
        <ele>114.59999847412</ele>
        <time>2016-04-18T18:49:43Z</time>
      </trkpt>
      <trkpt lat="48.87063" lon="2.39562">
        <ele>116.80000305176</ele>
        <time>2016-04-18T18:50:06Z</time>
      </trkpt>
      <trkpt lat="48.87077" lon="2.39584">
        <ele>118.80000305176</ele>
        <time>2016-04-18T18:50:11Z</time>
      </trkpt>
      <trkpt lat="48.87091" lon="2.39606">
        <ele>120.40000152588</ele>
        <time>2016-04-18T18:50:15Z</time>
      </trkpt>
      <trkpt lat="48.87105" lon="2.39626">
        <ele>122</ele>
        <time>2016-04-18T18:50:19Z</time>
      </trkpt>
      <trkpt lat="48.87116" lon="2.39649">
        <ele>122.80000305176</ele>
        <time>2016-04-18T18:50:23Z</time>
      </trkpt>
      <trkpt lat="48.87125" lon="2.39676">
        <ele>123.40000152588</ele>
        <time>2016-04-18T18:50:28Z</time>
      </trkpt>
      <trkpt lat="48.87137" lon="2.39699">
        <ele>123.40000152588</ele>
        <time>2016-04-18T18:50:32Z</time>
      </trkpt>
      <trkpt lat="48.87152" lon="2.39722">
        <ele>123</ele>
        <time>2016-04-18T18:50:36Z</time>
      </trkpt>
      <trkpt lat="48.87166" lon="2.39743">
        <ele>122.80000305176</ele>
        <time>2016-04-18T18:50:40Z</time>
      </trkpt>
      <trkpt lat="48.87168" lon="2.3975">
        <ele>122.80000305176</ele>
        <time>2016-04-18T18:50:41Z</time>
      </trkpt>
      <trkpt lat="48.87179" lon="2.39759">
        <ele>122.59999847412</ele>
        <time>2016-04-18T18:50:44Z</time>
      </trkpt>
      <trkpt lat="48.87193" lon="2.39765">
        <ele>122.40000152588</ele>
        <time>2016-04-18T18:50:48Z</time>
      </trkpt>
      <trkpt lat="48.87206" lon="2.39767">
        <ele>122.80000305176</ele>
        <time>2016-04-18T18:50:52Z</time>
      </trkpt>
      <trkpt lat="48.87221" lon="2.39774">
        <ele>123.19999694824</ele>
        <time>2016-04-18T18:50:58Z</time>
      </trkpt>
      <trkpt lat="48.87228" lon="2.39787">
        <ele>123.80000305176</ele>
        <time>2016-04-18T18:51:03Z</time>
      </trkpt>
      <trkpt lat="48.87233" lon="2.39799">
        <ele>124.19999694824</ele>
        <time>2016-04-18T18:51:40Z</time>
      </trkpt>
      <trkpt lat="48.87234" lon="2.39828">
        <ele>124.59999847412</ele>
        <time>2016-04-18T18:51:45Z</time>
      </trkpt>
      <trkpt lat="48.87243" lon="2.39856">
        <ele>124.59999847412</ele>
        <time>2016-04-18T18:51:50Z</time>
      </trkpt>
      <trkpt lat="48.87249" lon="2.39882">
        <ele>124.59999847412</ele>
        <time>2016-04-18T18:51:54Z</time>
      </trkpt>
      <trkpt lat="48.87262" lon="2.3991">
        <ele>124.59999847412</ele>
        <time>2016-04-18T18:51:59Z</time>
      </trkpt>
      <trkpt lat="48.8727" lon="2.3992">
        <ele>124.59999847412</ele>
        <time>2016-04-18T18:52:01Z</time>
      </trkpt>
      <trkpt lat="48.87279" lon="2.39942">
        <ele>124.59999847412</ele>
        <time>2016-04-18T18:52:05Z</time>
      </trkpt>
      <trkpt lat="48.87289" lon="2.39967">
        <ele>124.80000305176</ele>
        <time>2016-04-18T18:52:10Z</time>
      </trkpt>
      <trkpt lat="48.87294" lon="2.39985">
        <ele>124.59999847412</ele>
        <time>2016-04-18T18:52:13Z</time>
      </trkpt>
      <trkpt lat="48.87301" lon="2.40011">
        <ele>124</ele>
        <time>2016-04-18T18:52:17Z</time>
      </trkpt>
      <trkpt lat="48.87302" lon="2.40017">
        <ele>123.59999847412</ele>
        <time>2016-04-18T18:52:18Z</time>
      </trkpt>
      <trkpt lat="48.87309" lon="2.40044">
        <ele>123.40000152588</ele>
        <time>2016-04-18T18:52:22Z</time>
      </trkpt>
      <trkpt lat="48.87314" lon="2.40072">
        <ele>123.80000305176</ele>
        <time>2016-04-18T18:52:26Z</time>
      </trkpt>
      <trkpt lat="48.8732" lon="2.40099">
        <ele>123.80000305176</ele>
        <time>2016-04-18T18:52:30Z</time>
      </trkpt>
      <trkpt lat="48.87329" lon="2.40127">
        <ele>123.80000305176</ele>
        <time>2016-04-18T18:52:34Z</time>
      </trkpt>
      <trkpt lat="48.87333" lon="2.40142">
        <ele>123.59999847412</ele>
        <time>2016-04-18T18:52:36Z</time>
      </trkpt>
      <trkpt lat="48.87342" lon="2.40171">
        <ele>124.19999694824</ele>
        <time>2016-04-18T18:52:40Z</time>
      </trkpt>
      <trkpt lat="48.8735" lon="2.40203">
        <ele>124.59999847412</ele>
        <time>2016-04-18T18:52:44Z</time>
      </trkpt>
      <trkpt lat="48.87359" lon="2.40234">
        <ele>125</ele>
        <time>2016-04-18T18:52:48Z</time>
      </trkpt>
      <trkpt lat="48.87368" lon="2.40255">
        <ele>124.80000305176</ele>
        <time>2016-04-18T18:52:51Z</time>
      </trkpt>
      <trkpt lat="48.87378" lon="2.40282">
        <ele>124.40000152588</ele>
        <time>2016-04-18T18:52:55Z</time>
      </trkpt>
      <trkpt lat="48.87386" lon="2.40297">
        <ele>124.19999694824</ele>
        <time>2016-04-18T18:53:00Z</time>
      </trkpt>
      <trkpt lat="48.87377" lon="2.40272">
        <ele>124.59999847412</ele>
        <time>2016-04-18T18:53:07Z</time>
      </trkpt>
      <trkpt lat="48.87381" lon="2.40279">
        <ele>124.59999847412</ele>
        <time>2016-04-18T18:53:24Z</time>
      </trkpt>
      <trkpt lat="48.87386" lon="2.40305">
        <ele>124</ele>
        <time>2016-04-18T18:53:31Z</time>
      </trkpt>
      <trkpt lat="48.8739" lon="2.40329">
        <ele>123.40000152588</ele>
        <time>2016-04-18T18:53:41Z</time>
      </trkpt>
      <trkpt lat="48.8739" lon="2.4033">
        <ele>123.40000152588</ele>
        <time>2016-04-18T18:53:42Z</time>
      </trkpt>
      <trkpt lat="48.87405" lon="2.4033">
        <ele>123.59999847412</ele>
        <time>2016-04-18T18:54:03Z</time>
      </trkpt>
      <trkpt lat="48.87423" lon="2.40322">
        <ele>124</ele>
        <time>2016-04-18T18:54:11Z</time>
      </trkpt>
      <trkpt lat="48.8744" lon="2.40306">
        <ele>123.59999847412</ele>
        <time>2016-04-18T18:54:21Z</time>
      </trkpt>
      <trkpt lat="48.87457" lon="2.40292">
        <ele>123.40000152588</ele>
        <time>2016-04-18T18:54:28Z</time>
      </trkpt>
      <trkpt lat="48.87478" lon="2.40281">
        <ele>123</ele>
        <time>2016-04-18T18:54:33Z</time>
      </trkpt>
      <trkpt lat="48.87499" lon="2.40274">
        <ele>123.40000152588</ele>
        <time>2016-04-18T18:54:38Z</time>
      </trkpt>
      <trkpt lat="48.87519" lon="2.40272">
        <ele>123.59999847412</ele>
        <time>2016-04-18T18:54:42Z</time>
      </trkpt>
      <trkpt lat="48.87539" lon="2.40271">
        <ele>124.19999694824</ele>
        <time>2016-04-18T18:54:46Z</time>
      </trkpt>
      <trkpt lat="48.87558" lon="2.40266">
        <ele>123.59999847412</ele>
        <time>2016-04-18T18:54:52Z</time>
      </trkpt>
      <trkpt lat="48.87578" lon="2.40259">
        <ele>122.59999847412</ele>
        <time>2016-04-18T18:54:58Z</time>
      </trkpt>
      <trkpt lat="48.87604" lon="2.4026">
        <ele>121.59999847412</ele>
        <time>2016-04-18T18:55:04Z</time>
      </trkpt>
      <trkpt lat="48.8761" lon="2.40253">
        <ele>121</ele>
        <time>2016-04-18T18:55:10Z</time>
      </trkpt>
      <trkpt lat="48.8763" lon="2.4025">
        <ele>120.40000152588</ele>
        <time>2016-04-18T18:55:17Z</time>
      </trkpt>
      <trkpt lat="48.8765" lon="2.40246">
        <ele>120</ele>
        <time>2016-04-18T18:55:23Z</time>
      </trkpt>
      <trkpt lat="48.87667" lon="2.40232">
        <ele>120.19999694824</ele>
        <time>2016-04-18T18:55:29Z</time>
      </trkpt>
      <trkpt lat="48.87686" lon="2.40221">
        <ele>118.40000152588</ele>
        <time>2016-04-18T18:55:34Z</time>
      </trkpt>
      <trkpt lat="48.87707" lon="2.40214">
        <ele>116.59999847412</ele>
        <time>2016-04-18T18:55:39Z</time>
      </trkpt>
      <trkpt lat="48.87724" lon="2.40203">
        <ele>115.19999694824</ele>
        <time>2016-04-18T18:55:44Z</time>
      </trkpt>
      <trkpt lat="48.87743" lon="2.4019">
        <ele>113.59999847412</ele>
        <time>2016-04-18T18:55:51Z</time>
      </trkpt>
      <trkpt lat="48.87752" lon="2.40184">
        <ele>113</ele>
        <time>2016-04-18T18:55:55Z</time>
      </trkpt>
      <trkpt lat="48.87767" lon="2.40195">
        <ele>112.40000152588</ele>
        <time>2016-04-18T18:56:43Z</time>
      </trkpt>
      <trkpt lat="48.87785" lon="2.40184">
        <ele>110.40000152588</ele>
        <time>2016-04-18T18:57:03Z</time>
      </trkpt>
      <trkpt lat="48.87803" lon="2.40177">
        <ele>108.80000305176</ele>
        <time>2016-04-18T18:57:13Z</time>
      </trkpt>
      <trkpt lat="48.87821" lon="2.40169">
        <ele>107.59999847412</ele>
        <time>2016-04-18T18:57:19Z</time>
      </trkpt>
      <trkpt lat="48.87838" lon="2.40157">
        <ele>106.59999847412</ele>
        <time>2016-04-18T18:57:24Z</time>
      </trkpt>
      <trkpt lat="48.87848" lon="2.40155">
        <ele>106</ele>
        <time>2016-04-18T18:57:29Z</time>
      </trkpt>
      <trkpt lat="48.87868" lon="2.40158">
        <ele>104.40000152588</ele>
        <time>2016-04-18T18:58:22Z</time>
      </trkpt>
      <trkpt lat="48.87878" lon="2.40143">
        <ele>104</ele>
        <time>2016-04-18T18:58:27Z</time>
      </trkpt>
      <trkpt lat="48.87896" lon="2.40137">
        <ele>102.80000305176</ele>
        <time>2016-04-18T18:58:32Z</time>
      </trkpt>
      <trkpt lat="48.87915" lon="2.40121">
        <ele>101.80000305176</ele>
        <time>2016-04-18T18:58:36Z</time>
      </trkpt>
      <trkpt lat="48.87935" lon="2.40105">
        <ele>100.80000305176</ele>
        <time>2016-04-18T18:58:40Z</time>
      </trkpt>
      <trkpt lat="48.87957" lon="2.40089">
        <ele>100.19999694824</ele>
        <time>2016-04-18T18:58:44Z</time>
      </trkpt>
      <trkpt lat="48.87974" lon="2.40077">
        <ele>100.19999694824</ele>
        <time>2016-04-18T18:58:47Z</time>
      </trkpt>
      <trkpt lat="48.87992" lon="2.40061">
        <ele>100.80000305176</ele>
        <time>2016-04-18T18:58:50Z</time>
      </trkpt>
      <trkpt lat="48.88012" lon="2.40045">
        <ele>100.80000305176</ele>
        <time>2016-04-18T18:58:54Z</time>
      </trkpt>
      <trkpt lat="48.88031" lon="2.40031">
        <ele>100.40000152588</ele>
        <time>2016-04-18T18:58:57Z</time>
      </trkpt>
      <trkpt lat="48.8805" lon="2.40019">
        <ele>99.400001525879</ele>
        <time>2016-04-18T18:59:01Z</time>
      </trkpt>
      <trkpt lat="48.88067" lon="2.40008">
        <ele>98.400001525879</ele>
        <time>2016-04-18T18:59:06Z</time>
      </trkpt>
      <trkpt lat="48.88075" lon="2.40006">
        <ele>97.599998474121</ele>
        <time>2016-04-18T18:59:09Z</time>
      </trkpt>
      <trkpt lat="48.88079" lon="2.40006">
        <ele>97.199996948242</ele>
        <time>2016-04-18T18:59:11Z</time>
      </trkpt>
      <trkpt lat="48.88088" lon="2.40001">
        <ele>96.599998474121</ele>
        <time>2016-04-18T18:59:27Z</time>
      </trkpt>
      <trkpt lat="48.88103" lon="2.40003">
        <ele>95.199996948242</ele>
        <time>2016-04-18T18:59:31Z</time>
      </trkpt>
      <trkpt lat="48.88122" lon="2.40013">
        <ele>93.800003051758</ele>
        <time>2016-04-18T18:59:35Z</time>
      </trkpt>
      <trkpt lat="48.8814" lon="2.4003">
        <ele>92.199996948242</ele>
        <time>2016-04-18T18:59:39Z</time>
      </trkpt>
      <trkpt lat="48.8816" lon="2.40048">
        <ele>90.599998474121</ele>
        <time>2016-04-18T18:59:43Z</time>
      </trkpt>
      <trkpt lat="48.88177" lon="2.40054">
        <ele>89.599998474121</ele>
        <time>2016-04-18T18:59:46Z</time>
      </trkpt>
      <trkpt lat="48.88195" lon="2.40054">
        <ele>88.599998474121</ele>
        <time>2016-04-18T18:59:49Z</time>
      </trkpt>
      <trkpt lat="48.88206" lon="2.40052">
        <ele>87.800003051758</ele>
        <time>2016-04-18T18:59:51Z</time>
      </trkpt>
      <trkpt lat="48.88223" lon="2.40044">
        <ele>87</ele>
        <time>2016-04-18T18:59:55Z</time>
      </trkpt>
      <trkpt lat="48.88227" lon="2.4004">
        <ele>86.800003051758</ele>
        <time>2016-04-18T18:59:56Z</time>
      </trkpt>
      <trkpt lat="48.88239" lon="2.4002">
        <ele>85.599998474121</ele>
        <time>2016-04-18T19:00:00Z</time>
      </trkpt>
      <trkpt lat="48.88249" lon="2.39996">
        <ele>84.800003051758</ele>
        <time>2016-04-18T19:00:04Z</time>
      </trkpt>
      <trkpt lat="48.88256" lon="2.39971">
        <ele>85.400001525879</ele>
        <time>2016-04-18T19:00:08Z</time>
      </trkpt>
      <trkpt lat="48.88259" lon="2.39958">
        <ele>85.800003051758</ele>
        <time>2016-04-18T19:00:10Z</time>
      </trkpt>
      <trkpt lat="48.88263" lon="2.3993">
        <ele>87</ele>
        <time>2016-04-18T19:00:14Z</time>
      </trkpt>
      <trkpt lat="48.88266" lon="2.39902">
        <ele>88.400001525879</ele>
        <time>2016-04-18T19:00:18Z</time>
      </trkpt>
      <trkpt lat="48.88271" lon="2.3987">
        <ele>90.800003051758</ele>
        <time>2016-04-18T19:00:23Z</time>
      </trkpt>
      <trkpt lat="48.88275" lon="2.39853">
        <ele>92</ele>
        <time>2016-04-18T19:00:26Z</time>
      </trkpt>
      <trkpt lat="48.88278" lon="2.39824">
        <ele>93.400001525879</ele>
        <time>2016-04-18T19:00:31Z</time>
      </trkpt>
      <trkpt lat="48.88282" lon="2.39807">
        <ele>93.199996948242</ele>
        <time>2016-04-18T19:00:34Z</time>
      </trkpt>
      <trkpt lat="48.88289" lon="2.39783">
        <ele>92.599998474121</ele>
        <time>2016-04-18T19:00:38Z</time>
      </trkpt>
      <trkpt lat="48.88294" lon="2.39772">
        <ele>92.199996948242</ele>
        <time>2016-04-18T19:00:40Z</time>
      </trkpt>
      <trkpt lat="48.88298" lon="2.3976">
        <ele>91.599998474121</ele>
        <time>2016-04-18T19:00:42Z</time>
      </trkpt>
      <trkpt lat="48.88315" lon="2.39741">
        <ele>88.400001525879</ele>
        <time>2016-04-18T19:00:46Z</time>
      </trkpt>
      <trkpt lat="48.88331" lon="2.39726">
        <ele>85.400001525879</ele>
        <time>2016-04-18T19:00:49Z</time>
      </trkpt>
      <trkpt lat="48.8835" lon="2.39712">
        <ele>82.800003051758</ele>
        <time>2016-04-18T19:00:53Z</time>
      </trkpt>
      <trkpt lat="48.88353" lon="2.39707">
        <ele>82.400001525879</ele>
        <time>2016-04-18T19:00:54Z</time>
      </trkpt>
      <trkpt lat="48.88366" lon="2.39685">
        <ele>81.599998474121</ele>
        <time>2016-04-18T19:00:59Z</time>
      </trkpt>
      <trkpt lat="48.88375" lon="2.39682">
        <ele>81</ele>
        <time>2016-04-18T19:01:01Z</time>
      </trkpt>
      <trkpt lat="48.88386" lon="2.39678">
        <ele>79.599998474121</ele>
        <time>2016-04-18T19:01:03Z</time>
      </trkpt>
      <trkpt lat="48.88406" lon="2.39668">
        <ele>77</ele>
        <time>2016-04-18T19:01:08Z</time>
      </trkpt>
      <trkpt lat="48.88412" lon="2.39662">
        <ele>76.400001525879</ele>
        <time>2016-04-18T19:01:10Z</time>
      </trkpt>
      <trkpt lat="48.88431" lon="2.39656">
        <ele>74</ele>
        <time>2016-04-18T19:01:15Z</time>
      </trkpt>
      <trkpt lat="48.88452" lon="2.39647">
        <ele>73.199996948242</ele>
        <time>2016-04-18T19:01:19Z</time>
      </trkpt>
      <trkpt lat="48.88477" lon="2.39642">
        <ele>73.400001525879</ele>
        <time>2016-04-18T19:01:23Z</time>
      </trkpt>
      <trkpt lat="48.88498" lon="2.3964">
        <ele>73.800003051758</ele>
        <time>2016-04-18T19:01:26Z</time>
      </trkpt>
      <trkpt lat="48.88522" lon="2.3964">
        <ele>73.400001525879</ele>
        <time>2016-04-18T19:01:29Z</time>
      </trkpt>
      <trkpt lat="48.8854" lon="2.39632">
        <ele>71.199996948242</ele>
        <time>2016-04-18T19:01:33Z</time>
      </trkpt>
      <trkpt lat="48.8856" lon="2.39627">
        <ele>68.599998474121</ele>
        <time>2016-04-18T19:01:38Z</time>
      </trkpt>
      <trkpt lat="48.88579" lon="2.39625">
        <ele>66.599998474121</ele>
        <time>2016-04-18T19:01:43Z</time>
      </trkpt>
      <trkpt lat="48.88598" lon="2.39633">
        <ele>64.800003051758</ele>
        <time>2016-04-18T19:01:53Z</time>
      </trkpt>
      <trkpt lat="48.88603" lon="2.39634">
        <ele>64.400001525879</ele>
        <time>2016-04-18T19:01:55Z</time>
      </trkpt>
      <trkpt lat="48.88624" lon="2.39626">
        <ele>64.199996948242</ele>
        <time>2016-04-18T19:02:01Z</time>
      </trkpt>
      <trkpt lat="48.88644" lon="2.39622">
        <ele>64.400001525879</ele>
        <time>2016-04-18T19:02:07Z</time>
      </trkpt>
      <trkpt lat="48.88663" lon="2.39629">
        <ele>64.599998474121</ele>
        <time>2016-04-18T19:02:17Z</time>
      </trkpt>
      <trkpt lat="48.88683" lon="2.39629">
        <ele>65</ele>
        <time>2016-04-18T19:02:25Z</time>
      </trkpt>
      <trkpt lat="48.88702" lon="2.39625">
        <ele>64.800003051758</ele>
        <time>2016-04-18T19:02:30Z</time>
      </trkpt>
      <trkpt lat="48.88721" lon="2.39622">
        <ele>64.199996948242</ele>
        <time>2016-04-18T19:02:37Z</time>
      </trkpt>
      <trkpt lat="48.88741" lon="2.39619">
        <ele>63.599998474121</ele>
        <time>2016-04-18T19:02:44Z</time>
      </trkpt>
      <trkpt lat="48.88761" lon="2.39616">
        <ele>62.79999923706</ele>
        <time>2016-04-18T19:02:49Z</time>
      </trkpt>
      <trkpt lat="48.88779" lon="2.39607">
        <ele>62</ele>
        <time>2016-04-18T19:02:55Z</time>
      </trkpt>
      <trkpt lat="48.88797" lon="2.39594">
        <ele>61</ele>
        <time>2016-04-18T19:03:01Z</time>
      </trkpt>
      <trkpt lat="48.88817" lon="2.39587">
        <ele>60.400001525879</ele>
        <time>2016-04-18T19:03:09Z</time>
      </trkpt>
      <trkpt lat="48.88839" lon="2.39585">
        <ele>59.599998474121</ele>
        <time>2016-04-18T19:03:15Z</time>
      </trkpt>
      <trkpt lat="48.88858" lon="2.39577">
        <ele>59</ele>
        <time>2016-04-18T19:03:20Z</time>
      </trkpt>
      <trkpt lat="48.88877" lon="2.39559">
        <ele>58.79999923706</ele>
        <time>2016-04-18T19:03:24Z</time>
      </trkpt>
      <trkpt lat="48.88897" lon="2.39549">
        <ele>58.400001525879</ele>
        <time>2016-04-18T19:03:29Z</time>
      </trkpt>
      <trkpt lat="48.88917" lon="2.39543">
        <ele>57.400001525879</ele>
        <time>2016-04-18T19:03:34Z</time>
      </trkpt>
      <trkpt lat="48.88937" lon="2.39535">
        <ele>56.20000076294</ele>
        <time>2016-04-18T19:03:41Z</time>
      </trkpt>
      <trkpt lat="48.88957" lon="2.39529">
        <ele>56.599998474121</ele>
        <time>2016-04-18T19:03:49Z</time>
      </trkpt>
      <trkpt lat="48.88973" lon="2.39518">
        <ele>56.599998474121</ele>
        <time>2016-04-18T19:03:57Z</time>
      </trkpt>
      <trkpt lat="48.88975" lon="2.39518">
        <ele>56.599998474121</ele>
        <time>2016-04-18T19:03:58Z</time>
      </trkpt>
      <trkpt lat="48.88987" lon="2.39514">
        <ele>56.599998474121</ele>
        <time>2016-04-18T19:04:07Z</time>
      </trkpt>
      <trkpt lat="48.89005" lon="2.39498">
        <ele>56</ele>
        <time>2016-04-18T19:04:18Z</time>
      </trkpt>
      <trkpt lat="48.89026" lon="2.39488">
        <ele>55.79999923706</ele>
        <time>2016-04-18T19:04:23Z</time>
      </trkpt>
      <trkpt lat="48.89044" lon="2.39477">
        <ele>56</ele>
        <time>2016-04-18T19:04:27Z</time>
      </trkpt>
      <trkpt lat="48.89061" lon="2.39453">
        <ele>55.79999923706</ele>
        <time>2016-04-18T19:04:31Z</time>
      </trkpt>
      <trkpt lat="48.89078" lon="2.39431">
        <ele>55.20000076294</ele>
        <time>2016-04-18T19:04:35Z</time>
      </trkpt>
      <trkpt lat="48.89091" lon="2.39412">
        <ele>54.79999923706</ele>
        <time>2016-04-18T19:04:38Z</time>
      </trkpt>
      <trkpt lat="48.89107" lon="2.39393">
        <ele>55.20000076294</ele>
        <time>2016-04-18T19:04:42Z</time>
      </trkpt>
      <trkpt lat="48.89116" lon="2.39377">
        <ele>55.79999923706</ele>
        <time>2016-04-18T19:04:45Z</time>
      </trkpt>
      <trkpt lat="48.89122" lon="2.39358">
        <ele>56.20000076294</ele>
        <time>2016-04-18T19:04:49Z</time>
      </trkpt>
      <trkpt lat="48.8913" lon="2.39319">
        <ele>55.79999923706</ele>
        <time>2016-04-18T19:04:56Z</time>
      </trkpt>
      <trkpt lat="48.89136" lon="2.39311">
        <ele>55.599998474121</ele>
        <time>2016-04-18T19:04:58Z</time>
      </trkpt>
      <trkpt lat="48.89159" lon="2.39316">
        <ele>55.400001525879</ele>
        <time>2016-04-18T19:05:03Z</time>
      </trkpt>
      <trkpt lat="48.89179" lon="2.39315">
        <ele>55.20000076294</ele>
        <time>2016-04-18T19:05:09Z</time>
      </trkpt>
      <trkpt lat="48.89183" lon="2.39319">
        <ele>55.20000076294</ele>
        <time>2016-04-18T19:05:11Z</time>
      </trkpt>
      <trkpt lat="48.89188" lon="2.39317">
        <ele>55.400001525879</ele>
        <time>2016-04-18T19:05:16Z</time>
      </trkpt>
      <trkpt lat="48.89191" lon="2.39315">
        <ele>55.400001525879</ele>
        <time>2016-04-18T19:05:20Z</time>
      </trkpt>
      <trkpt lat="48.89208" lon="2.3931">
        <ele>55.599998474121</ele>
        <time>2016-04-18T19:05:35Z</time>
      </trkpt>
      <trkpt lat="48.89218" lon="2.39309">
        <ele>55.599998474121</ele>
        <time>2016-04-18T19:05:52Z</time>
      </trkpt>
      <trkpt lat="48.89234" lon="2.39296">
        <ele>55.79999923706</ele>
        <time>2016-04-18T19:06:07Z</time>
      </trkpt>
      <trkpt lat="48.89251" lon="2.39281">
        <ele>54.79999923706</ele>
        <time>2016-04-18T19:06:18Z</time>
      </trkpt>
      <trkpt lat="48.89253" lon="2.39278">
        <ele>54.599998474121</ele>
        <time>2016-04-18T19:06:20Z</time>
      </trkpt>
      <trkpt lat="48.89259" lon="2.39255">
        <ele>53.79999923706</ele>
        <time>2016-04-18T19:06:32Z</time>
      </trkpt>
      <trkpt lat="48.8927" lon="2.3924">
        <ele>53</ele>
        <time>2016-04-18T19:06:42Z</time>
      </trkpt>
      <trkpt lat="48.89271" lon="2.39234">
        <ele>52.79999923706</ele>
        <time>2016-04-18T19:06:46Z</time>
      </trkpt>
      <trkpt lat="48.89283" lon="2.39211">
        <ele>52.599998474121</ele>
        <time>2016-04-18T19:07:04Z</time>
      </trkpt>
      <trkpt lat="48.89298" lon="2.39195">
        <ele>52.599998474121</ele>
        <time>2016-04-18T19:07:12Z</time>
      </trkpt>
      <trkpt lat="48.89308" lon="2.39172">
        <ele>52.20000076294</ele>
        <time>2016-04-18T19:07:20Z</time>
      </trkpt>
      <trkpt lat="48.8931" lon="2.39157">
        <ele>52</ele>
        <time>2016-04-18T19:07:26Z</time>
      </trkpt>
      <trkpt lat="48.89318" lon="2.39161">
        <ele>52</ele>
        <time>2016-04-18T19:07:30Z</time>
      </trkpt>
      <trkpt lat="48.89337" lon="2.39173">
        <ele>52.20000076294</ele>
        <time>2016-04-18T19:07:37Z</time>
      </trkpt>
      <trkpt lat="48.89357" lon="2.3918">
        <ele>52.400001525879</ele>
        <time>2016-04-18T19:07:43Z</time>
      </trkpt>
      <trkpt lat="48.89375" lon="2.3918">
        <ele>52.20000076294</ele>
        <time>2016-04-18T19:07:50Z</time>
      </trkpt>
      <trkpt lat="48.89395" lon="2.39176">
        <ele>53</ele>
        <time>2016-04-18T19:07:56Z</time>
      </trkpt>
      <trkpt lat="48.89415" lon="2.39169">
        <ele>54</ele>
        <time>2016-04-18T19:08:01Z</time>
      </trkpt>
      <trkpt lat="48.89424" lon="2.3917">
        <ele>54.20000076294</ele>
        <time>2016-04-18T19:08:05Z</time>
      </trkpt>
      <trkpt lat="48.89432" lon="2.3919">
        <ele>53.79999923706</ele>
        <time>2016-04-18T19:08:41Z</time>
      </trkpt>
      <trkpt lat="48.89437" lon="2.39189">
        <ele>54</ele>
        <time>2016-04-18T19:08:46Z</time>
      </trkpt>
      <trkpt lat="48.89452" lon="2.39171">
        <ele>54.599998474121</ele>
        <time>2016-04-18T19:08:55Z</time>
      </trkpt>
      <trkpt lat="48.89467" lon="2.39155">
        <ele>54.20000076294</ele>
        <time>2016-04-18T19:09:06Z</time>
      </trkpt>
      <trkpt lat="48.89476" lon="2.39146">
        <ele>54</ele>
        <time>2016-04-18T19:09:15Z</time>
      </trkpt>
      <trkpt lat="48.89475" lon="2.39165">
        <ele>54.20000076294</ele>
        <time>2016-04-18T19:10:03Z</time>
      </trkpt>
      <trkpt lat="48.89476" lon="2.39165">
        <ele>54.20000076294</ele>
        <time>2016-04-18T19:10:58Z</time>
      </trkpt>
      <trkpt lat="48.89464" lon="2.39157">
        <ele>54.400001525879</ele>
        <time>2016-04-18T19:11:32Z</time>
      </trkpt>
      <trkpt lat="48.89452" lon="2.39136">
        <ele>54.400001525879</ele>
        <time>2016-04-18T19:11:39Z</time>
      </trkpt>
      <trkpt lat="48.89453" lon="2.39134">
        <ele>54.400001525879</ele>
        <time>2016-04-18T19:11:40Z</time>
      </trkpt>
      <trkpt lat="48.89466" lon="2.3911">
        <ele>53.79999923706</ele>
        <time>2016-04-18T19:11:54Z</time>
      </trkpt>
      <trkpt lat="48.89476" lon="2.39087">
        <ele>52.79999923706</ele>
        <time>2016-04-18T19:12:01Z</time>
      </trkpt>
      <trkpt lat="48.89485" lon="2.39062">
        <ele>52.400001525879</ele>
        <time>2016-04-18T19:12:10Z</time>
      </trkpt>
      <trkpt lat="48.89485" lon="2.39041">
        <ele>52.400001525879</ele>
        <time>2016-04-18T19:12:18Z</time>
      </trkpt>
      <trkpt lat="48.8948" lon="2.39022">
        <ele>52.400001525879</ele>
        <time>2016-04-18T19:12:29Z</time>
      </trkpt>
      <trkpt lat="48.89465" lon="2.39003">
        <ele>52.79999923706</ele>
        <time>2016-04-18T19:12:38Z</time>
      </trkpt>
      <trkpt lat="48.89463" lon="2.39003">
        <ele>53</ele>
        <time>2016-04-18T19:12:39Z</time>
      </trkpt>
      <trkpt lat="48.89452" lon="2.39002">
        <ele>53.400001525879</ele>
        <time>2016-04-18T19:12:45Z</time>
      </trkpt>
      <trkpt lat="48.8944" lon="2.38997">
        <ele>54</ele>
        <time>2016-04-18T19:12:52Z</time>
      </trkpt>
      <trkpt lat="48.89436" lon="2.38986">
        <ele>53.79999923706</ele>
        <time>2016-04-18T19:12:57Z</time>
      </trkpt>
      <trkpt lat="48.8944" lon="2.38962">
        <ele>53.20000076294</ele>
        <time>2016-04-18T19:13:06Z</time>
      </trkpt>
      <trkpt lat="48.89453" lon="2.38944">
        <ele>52</ele>
        <time>2016-04-18T19:13:14Z</time>
      </trkpt>
      <trkpt lat="48.89458" lon="2.38935">
        <ele>51.599998474121</ele>
        <time>2016-04-18T19:13:18Z</time>
      </trkpt>
      <trkpt lat="48.89472" lon="2.38913">
        <ele>52</ele>
        <time>2016-04-18T19:13:27Z</time>
      </trkpt>
      <trkpt lat="48.89487" lon="2.38892">
        <ele>51.20000076294</ele>
        <time>2016-04-18T19:13:34Z</time>
      </trkpt>
      <trkpt lat="48.89501" lon="2.38873">
        <ele>50.20000076294</ele>
        <time>2016-04-18T19:13:40Z</time>
      </trkpt>
      <trkpt lat="48.89518" lon="2.38856">
        <ele>49.20000076294</ele>
        <time>2016-04-18T19:13:46Z</time>
      </trkpt>
      <trkpt lat="48.89523" lon="2.38847">
        <ele>48.79999923706</ele>
        <time>2016-04-18T19:13:52Z</time>
      </trkpt>
      <trkpt lat="48.89507" lon="2.38861">
        <ele>49.599998474121</ele>
        <time>2016-04-18T19:13:56Z</time>
      </trkpt>
      <trkpt lat="48.89499" lon="2.38866">
        <ele>50</ele>
        <time>2016-04-18T19:13:58Z</time>
      </trkpt>
      <trkpt lat="48.89473" lon="2.38869">
        <ele>50.400001525879</ele>
        <time>2016-04-18T19:14:06Z</time>
      </trkpt>
      <trkpt lat="48.89473" lon="2.38866">
        <ele>50.20000076294</ele>
        <time>2016-04-18T19:14:07Z</time>
      </trkpt>
      <trkpt lat="48.89483" lon="2.38866">
        <ele>50.20000076294</ele>
        <time>2016-04-18T19:14:14Z</time>
      </trkpt>
      <trkpt lat="48.89484" lon="2.38865">
        <ele>50</ele>
        <time>2016-04-18T19:14:15Z</time>
      </trkpt>
      <trkpt lat="48.8948" lon="2.38863">
        <ele>50</ele>
        <time>2016-04-18T19:14:47Z</time>
      </trkpt>
      <trkpt lat="48.89471" lon="2.38867">
        <ele>50.20000076294</ele>
        <time>2016-04-18T19:14:52Z</time>
      </trkpt>
      <trkpt lat="48.89467" lon="2.38869">
        <ele>50.400001525879</ele>
        <time>2016-04-18T19:14:55Z</time>
      </trkpt>
      <trkpt lat="48.8947" lon="2.38861">
        <ele>50</ele>
        <time>2016-04-18T19:15:00Z</time>
      </trkpt>
      <trkpt lat="48.89454" lon="2.38842">
        <ele>49.400001525879</ele>
        <time>2016-04-18T19:15:09Z</time>
      </trkpt>
      <trkpt lat="48.89442" lon="2.38818">
        <ele>49.20000076294</ele>
        <time>2016-04-18T19:15:16Z</time>
      </trkpt>
      <trkpt lat="48.89431" lon="2.38789">
        <ele>50</ele>
        <time>2016-04-18T19:15:22Z</time>
      </trkpt>
      <trkpt lat="48.89419" lon="2.38767">
        <ele>50.79999923706</ele>
        <time>2016-04-18T19:15:28Z</time>
      </trkpt>
      <trkpt lat="48.89404" lon="2.3875">
        <ele>51.599998474121</ele>
        <time>2016-04-18T19:15:36Z</time>
      </trkpt>
      <trkpt lat="48.89393" lon="2.38728">
        <ele>52</ele>
        <time>2016-04-18T19:15:42Z</time>
      </trkpt>
      <trkpt lat="48.89395" lon="2.38696">
        <ele>51.599998474121</ele>
        <time>2016-04-18T19:15:48Z</time>
      </trkpt>
      <trkpt lat="48.89409" lon="2.38675">
        <ele>50.599998474121</ele>
        <time>2016-04-18T19:15:53Z</time>
      </trkpt>
      <trkpt lat="48.89431" lon="2.38668">
        <ele>49.400001525879</ele>
        <time>2016-04-18T19:15:56Z</time>
      </trkpt>
      <trkpt lat="48.89452" lon="2.3866">
        <ele>48.20000076294</ele>
        <time>2016-04-18T19:16:01Z</time>
      </trkpt>
      <trkpt lat="48.89474" lon="2.38652">
        <ele>47</ele>
        <time>2016-04-18T19:16:05Z</time>
      </trkpt>
      <trkpt lat="48.89488" lon="2.38647">
        <ele>46.20000076294</ele>
        <time>2016-04-18T19:16:09Z</time>
      </trkpt>
      <trkpt lat="48.89494" lon="2.38645">
        <ele>45.79999923706</ele>
        <time>2016-04-18T19:16:11Z</time>
      </trkpt>
      <trkpt lat="48.895" lon="2.3864">
        <ele>45.400001525879</ele>
        <time>2016-04-18T19:16:14Z</time>
      </trkpt>
      <trkpt lat="48.89504" lon="2.38629">
        <ele>46.400001525879</ele>
        <time>2016-04-18T19:16:20Z</time>
      </trkpt>
      <trkpt lat="48.89501" lon="2.38621">
        <ele>46.79999923706</ele>
        <time>2016-04-18T19:16:24Z</time>
      </trkpt>
      <trkpt lat="48.89483" lon="2.38612">
        <ele>47.400001525879</ele>
        <time>2016-04-18T19:16:33Z</time>
      </trkpt>
      <trkpt lat="48.89476" lon="2.38592">
        <ele>48.599998474121</ele>
        <time>2016-04-18T19:16:37Z</time>
      </trkpt>
      <trkpt lat="48.8947" lon="2.38579">
        <ele>49.20000076294</ele>
        <time>2016-04-18T19:16:42Z</time>
      </trkpt>
      <trkpt lat="48.89465" lon="2.38578">
        <ele>49.20000076294</ele>
        <time>2016-04-18T19:16:47Z</time>
      </trkpt>
      <trkpt lat="48.89465" lon="2.38593">
        <ele>48.400001525879</ele>
        <time>2016-04-18T19:17:52Z</time>
      </trkpt>
      <trkpt lat="48.89464" lon="2.38591">
        <ele>48.599998474121</ele>
        <time>2016-04-18T19:17:59Z</time>
      </trkpt>
      <trkpt lat="48.89478" lon="2.3857">
        <ele>49</ele>
        <time>2016-04-18T19:18:09Z</time>
      </trkpt>
      <trkpt lat="48.89491" lon="2.38547">
        <ele>48.400001525879</ele>
        <time>2016-04-18T19:18:17Z</time>
      </trkpt>
      <trkpt lat="48.89504" lon="2.38523">
        <ele>47.599998474121</ele>
        <time>2016-04-18T19:18:23Z</time>
      </trkpt>
      <trkpt lat="48.89522" lon="2.38506">
        <ele>47.20000076294</ele>
        <time>2016-04-18T19:18:28Z</time>
      </trkpt>
      <trkpt lat="48.89541" lon="2.38489">
        <ele>46.599998474121</ele>
        <time>2016-04-18T19:18:33Z</time>
      </trkpt>
      <trkpt lat="48.89558" lon="2.38473">
        <ele>46.20000076294</ele>
        <time>2016-04-18T19:18:38Z</time>
      </trkpt>
      <trkpt lat="48.89573" lon="2.38456">
        <ele>46</ele>
        <time>2016-04-18T19:18:44Z</time>
      </trkpt>
      <trkpt lat="48.8959" lon="2.38445">
        <ele>46.79999923706</ele>
        <time>2016-04-18T19:18:49Z</time>
      </trkpt>
      <trkpt lat="48.89606" lon="2.38429">
        <ele>47.400001525879</ele>
        <time>2016-04-18T19:18:57Z</time>
      </trkpt>
      <trkpt lat="48.89608" lon="2.38428">
        <ele>47.599998474121</ele>
        <time>2016-04-18T19:19:00Z</time>
      </trkpt>
      <trkpt lat="48.89605" lon="2.38399">
        <ele>48.400001525879</ele>
        <time>2016-04-18T19:19:38Z</time>
      </trkpt>
      <trkpt lat="48.89596" lon="2.38371">
        <ele>49</ele>
        <time>2016-04-18T19:19:45Z</time>
      </trkpt>
      <trkpt lat="48.89579" lon="2.38354">
        <ele>49.400001525879</ele>
        <time>2016-04-18T19:19:50Z</time>
      </trkpt>
      <trkpt lat="48.89575" lon="2.3835">
        <ele>49.599998474121</ele>
        <time>2016-04-18T19:19:51Z</time>
      </trkpt>
      <trkpt lat="48.89563" lon="2.38329">
        <ele>50</ele>
        <time>2016-04-18T19:19:55Z</time>
      </trkpt>
      <trkpt lat="48.89547" lon="2.38306">
        <ele>51</ele>
        <time>2016-04-18T19:19:59Z</time>
      </trkpt>
      <trkpt lat="48.89532" lon="2.38286">
        <ele>51.599998474121</ele>
        <time>2016-04-18T19:20:03Z</time>
      </trkpt>
      <trkpt lat="48.89513" lon="2.3827">
        <ele>52.400001525879</ele>
        <time>2016-04-18T19:20:08Z</time>
      </trkpt>
      <trkpt lat="48.89496" lon="2.38254">
        <ele>53.400001525879</ele>
        <time>2016-04-18T19:20:12Z</time>
      </trkpt>
      <trkpt lat="48.89483" lon="2.3823">
        <ele>53.400001525879</ele>
        <time>2016-04-18T19:20:16Z</time>
      </trkpt>
      <trkpt lat="48.89469" lon="2.38212">
        <ele>53</ele>
        <time>2016-04-18T19:20:19Z</time>
      </trkpt>
      <trkpt lat="48.89454" lon="2.38186">
        <ele>52.400001525879</ele>
        <time>2016-04-18T19:20:23Z</time>
      </trkpt>
      <trkpt lat="48.89446" lon="2.38175">
        <ele>52.20000076294</ele>
        <time>2016-04-18T19:20:25Z</time>
      </trkpt>
      <trkpt lat="48.8943" lon="2.38153">
        <ele>51.79999923706</ele>
        <time>2016-04-18T19:20:29Z</time>
      </trkpt>
      <trkpt lat="48.89414" lon="2.38138">
        <ele>51.599998474121</ele>
        <time>2016-04-18T19:20:33Z</time>
      </trkpt>
      <trkpt lat="48.89395" lon="2.38119">
        <ele>51.400001525879</ele>
        <time>2016-04-18T19:20:38Z</time>
      </trkpt>
      <trkpt lat="48.89388" lon="2.38111">
        <ele>51.400001525879</ele>
        <time>2016-04-18T19:20:40Z</time>
      </trkpt>
      <trkpt lat="48.89373" lon="2.38093">
        <ele>51.20000076294</ele>
        <time>2016-04-18T19:20:43Z</time>
      </trkpt>
      <trkpt lat="48.89359" lon="2.38071">
        <ele>51.20000076294</ele>
        <time>2016-04-18T19:20:45Z</time>
      </trkpt>
      <trkpt lat="48.8934" lon="2.38052">
        <ele>52.400001525879</ele>
        <time>2016-04-18T19:20:48Z</time>
      </trkpt>
      <trkpt lat="48.89325" lon="2.38033">
        <ele>53.20000076294</ele>
        <time>2016-04-18T19:20:50Z</time>
      </trkpt>
      <trkpt lat="48.89306" lon="2.38013">
        <ele>54.400001525879</ele>
        <time>2016-04-18T19:20:53Z</time>
      </trkpt>
      <trkpt lat="48.89291" lon="2.3799">
        <ele>55.20000076294</ele>
        <time>2016-04-18T19:20:56Z</time>
      </trkpt>
      <trkpt lat="48.89276" lon="2.37966">
        <ele>55.599998474121</ele>
        <time>2016-04-18T19:20:59Z</time>
      </trkpt>
      <trkpt lat="48.89263" lon="2.37948">
        <ele>55.20000076294</ele>
        <time>2016-04-18T19:21:02Z</time>
      </trkpt>
      <trkpt lat="48.89242" lon="2.37929">
        <ele>54.79999923706</ele>
        <time>2016-04-18T19:21:06Z</time>
      </trkpt>
      <trkpt lat="48.89232" lon="2.37906">
        <ele>54.599998474121</ele>
        <time>2016-04-18T19:21:10Z</time>
      </trkpt>
      <trkpt lat="48.89215" lon="2.37884">
        <ele>54.400001525879</ele>
        <time>2016-04-18T19:21:16Z</time>
      </trkpt>
      <trkpt lat="48.89201" lon="2.37867">
        <ele>54.20000076294</ele>
        <time>2016-04-18T19:21:20Z</time>
      </trkpt>
      <trkpt lat="48.89185" lon="2.37848">
        <ele>54.20000076294</ele>
        <time>2016-04-18T19:21:24Z</time>
      </trkpt>
      <trkpt lat="48.89171" lon="2.37828">
        <ele>54.400001525879</ele>
        <time>2016-04-18T19:21:28Z</time>
      </trkpt>
      <trkpt lat="48.89154" lon="2.37808">
        <ele>54.599998474121</ele>
        <time>2016-04-18T19:21:32Z</time>
      </trkpt>
      <trkpt lat="48.89138" lon="2.37791">
        <ele>54.79999923706</ele>
        <time>2016-04-18T19:21:36Z</time>
      </trkpt>
      <trkpt lat="48.89119" lon="2.37776">
        <ele>55</ele>
        <time>2016-04-18T19:21:41Z</time>
      </trkpt>
      <trkpt lat="48.89103" lon="2.37757">
        <ele>55.20000076294</ele>
        <time>2016-04-18T19:21:45Z</time>
      </trkpt>
      <trkpt lat="48.89085" lon="2.37742">
        <ele>55.400001525879</ele>
        <time>2016-04-18T19:21:49Z</time>
      </trkpt>
      <trkpt lat="48.89069" lon="2.37724">
        <ele>55.599998474121</ele>
        <time>2016-04-18T19:21:53Z</time>
      </trkpt>
      <trkpt lat="48.89054" lon="2.37708">
        <ele>55.79999923706</ele>
        <time>2016-04-18T19:21:58Z</time>
      </trkpt>
      <trkpt lat="48.89052" lon="2.37691">
        <ele>55.79999923706</ele>
        <time>2016-04-18T19:22:03Z</time>
      </trkpt>
      <trkpt lat="48.89044" lon="2.37667">
        <ele>56.20000076294</ele>
        <time>2016-04-18T19:22:22Z</time>
      </trkpt>
      <trkpt lat="48.8903" lon="2.37649">
        <ele>56</ele>
        <time>2016-04-18T19:22:26Z</time>
      </trkpt>
      <trkpt lat="48.89014" lon="2.37628">
        <ele>56.20000076294</ele>
        <time>2016-04-18T19:22:31Z</time>
      </trkpt>
      <trkpt lat="48.88999" lon="2.3761">
        <ele>56.599998474121</ele>
        <time>2016-04-18T19:22:35Z</time>
      </trkpt>
      <trkpt lat="48.88983" lon="2.37593">
        <ele>57</ele>
        <time>2016-04-18T19:22:39Z</time>
      </trkpt>
      <trkpt lat="48.88968" lon="2.37576">
        <ele>57.400001525879</ele>
        <time>2016-04-18T19:22:43Z</time>
      </trkpt>
      <trkpt lat="48.88953" lon="2.37549">
        <ele>58.400001525879</ele>
        <time>2016-04-18T19:22:47Z</time>
      </trkpt>
      <trkpt lat="48.88938" lon="2.37525">
        <ele>59.400001525879</ele>
        <time>2016-04-18T19:22:50Z</time>
      </trkpt>
      <trkpt lat="48.88923" lon="2.37502">
        <ele>59.79999923706</ele>
        <time>2016-04-18T19:22:53Z</time>
      </trkpt>
      <trkpt lat="48.88906" lon="2.37485">
        <ele>59.400001525879</ele>
        <time>2016-04-18T19:22:56Z</time>
      </trkpt>
      <trkpt lat="48.88885" lon="2.37471">
        <ele>59</ele>
        <time>2016-04-18T19:22:59Z</time>
      </trkpt>
      <trkpt lat="48.88868" lon="2.37445">
        <ele>58.400001525879</ele>
        <time>2016-04-18T19:23:02Z</time>
      </trkpt>
      <trkpt lat="48.88854" lon="2.37423">
        <ele>58</ele>
        <time>2016-04-18T19:23:05Z</time>
      </trkpt>
      <trkpt lat="48.88844" lon="2.37409">
        <ele>57.599998474121</ele>
        <time>2016-04-18T19:23:08Z</time>
      </trkpt>
      <trkpt lat="48.88844" lon="2.37383">
        <ele>57</ele>
        <time>2016-04-18T19:23:13Z</time>
      </trkpt>
      <trkpt lat="48.88852" lon="2.37366">
        <ele>56.79999923706</ele>
        <time>2016-04-18T19:23:16Z</time>
      </trkpt>
      <trkpt lat="48.88856" lon="2.3736">
        <ele>56.599998474121</ele>
        <time>2016-04-18T19:23:17Z</time>
      </trkpt>
      <trkpt lat="48.88865" lon="2.37344">
        <ele>56.599998474121</ele>
        <time>2016-04-18T19:23:20Z</time>
      </trkpt>
      <trkpt lat="48.88878" lon="2.37321">
        <ele>56</ele>
        <time>2016-04-18T19:23:24Z</time>
      </trkpt>
      <trkpt lat="48.88888" lon="2.37296">
        <ele>56</ele>
        <time>2016-04-18T19:23:28Z</time>
      </trkpt>
      <trkpt lat="48.88895" lon="2.37268">
        <ele>56.20000076294</ele>
        <time>2016-04-18T19:23:33Z</time>
      </trkpt>
      <trkpt lat="48.88898" lon="2.37254">
        <ele>56.400001525879</ele>
        <time>2016-04-18T19:23:35Z</time>
      </trkpt>
      <trkpt lat="48.88905" lon="2.3723">
        <ele>57</ele>
        <time>2016-04-18T19:23:39Z</time>
      </trkpt>
      <trkpt lat="48.88911" lon="2.37213">
        <ele>57.400001525879</ele>
        <time>2016-04-18T19:23:42Z</time>
      </trkpt>
      <trkpt lat="48.88912" lon="2.37196">
        <ele>57.400001525879</ele>
        <time>2016-04-18T19:23:45Z</time>
      </trkpt>
      <trkpt lat="48.88919" lon="2.37171">
        <ele>57.20000076294</ele>
        <time>2016-04-18T19:23:50Z</time>
      </trkpt>
      <trkpt lat="48.88925" lon="2.37158">
        <ele>57.20000076294</ele>
        <time>2016-04-18T19:23:54Z</time>
      </trkpt>
      <trkpt lat="48.88925" lon="2.37153">
        <ele>57</ele>
        <time>2016-04-18T19:23:56Z</time>
      </trkpt>
      <trkpt lat="48.88921" lon="2.37154">
        <ele>57.20000076294</ele>
        <time>2016-04-18T19:24:54Z</time>
      </trkpt>
      <trkpt lat="48.88913" lon="2.37138">
        <ele>57</ele>
        <time>2016-04-18T19:25:03Z</time>
      </trkpt>
      <trkpt lat="48.88918" lon="2.37126">
        <ele>56.599998474121</ele>
        <time>2016-04-18T19:25:56Z</time>
      </trkpt>
      <trkpt lat="48.88916" lon="2.37126">
        <ele>56.599998474121</ele>
        <time>2016-04-18T19:26:11Z</time>
      </trkpt>
      <trkpt lat="48.8892" lon="2.37097">
        <ele>55.79999923706</ele>
        <time>2016-04-18T19:26:20Z</time>
      </trkpt>
      <trkpt lat="48.88931" lon="2.37072">
        <ele>54.79999923706</ele>
        <time>2016-04-18T19:26:27Z</time>
      </trkpt>
      <trkpt lat="48.88935" lon="2.37043">
        <ele>55.400001525879</ele>
        <time>2016-04-18T19:26:32Z</time>
      </trkpt>
      <trkpt lat="48.88941" lon="2.37019">
        <ele>55.79999923706</ele>
        <time>2016-04-18T19:26:38Z</time>
      </trkpt>
      <trkpt lat="48.88954" lon="2.36992">
        <ele>55.400001525879</ele>
        <time>2016-04-18T19:26:44Z</time>
      </trkpt>
      <trkpt lat="48.88966" lon="2.3697">
        <ele>54.400001525879</ele>
        <time>2016-04-18T19:26:49Z</time>
      </trkpt>
      <trkpt lat="48.88968" lon="2.36938">
        <ele>53.400001525879</ele>
        <time>2016-04-18T19:26:54Z</time>
      </trkpt>
      <trkpt lat="48.88973" lon="2.36907">
        <ele>53.79999923706</ele>
        <time>2016-04-18T19:26:59Z</time>
      </trkpt>
      <trkpt lat="48.88979" lon="2.36875">
        <ele>54.400001525879</ele>
        <time>2016-04-18T19:27:05Z</time>
      </trkpt>
      <trkpt lat="48.88981" lon="2.36842">
        <ele>53</ele>
        <time>2016-04-18T19:27:11Z</time>
      </trkpt>
      <trkpt lat="48.88977" lon="2.36821">
        <ele>52.400001525879</ele>
        <time>2016-04-18T19:27:18Z</time>
      </trkpt>
      <trkpt lat="48.88975" lon="2.36812">
        <ele>52</ele>
        <time>2016-04-18T19:27:26Z</time>
      </trkpt>
      <trkpt lat="48.88977" lon="2.36782">
        <ele>51</ele>
        <time>2016-04-18T19:27:33Z</time>
      </trkpt>
      <trkpt lat="48.88976" lon="2.36753">
        <ele>50.20000076294</ele>
        <time>2016-04-18T19:27:39Z</time>
      </trkpt>
      <trkpt lat="48.88978" lon="2.36723">
        <ele>48.79999923706</ele>
        <time>2016-04-18T19:27:46Z</time>
      </trkpt>
      <trkpt lat="48.88979" lon="2.36693">
        <ele>47.599998474121</ele>
        <time>2016-04-18T19:27:53Z</time>
      </trkpt>
      <trkpt lat="48.88981" lon="2.36665">
        <ele>47</ele>
        <time>2016-04-18T19:27:59Z</time>
      </trkpt>
      <trkpt lat="48.88981" lon="2.36635">
        <ele>47.400001525879</ele>
        <time>2016-04-18T19:28:06Z</time>
      </trkpt>
      <trkpt lat="48.88982" lon="2.36605">
        <ele>48</ele>
        <time>2016-04-18T19:28:12Z</time>
      </trkpt>
      <trkpt lat="48.88983" lon="2.36575">
        <ele>48.599998474121</ele>
        <time>2016-04-18T19:28:18Z</time>
      </trkpt>
      <trkpt lat="48.88984" lon="2.36544">
        <ele>49.400001525879</ele>
        <time>2016-04-18T19:28:24Z</time>
      </trkpt>
      <trkpt lat="48.88986" lon="2.36516">
        <ele>50.400001525879</ele>
        <time>2016-04-18T19:28:29Z</time>
      </trkpt>
      <trkpt lat="48.88989" lon="2.36488">
        <ele>51</ele>
        <time>2016-04-18T19:28:34Z</time>
      </trkpt>
      <trkpt lat="48.88992" lon="2.36457">
        <ele>50.79999923706</ele>
        <time>2016-04-18T19:28:39Z</time>
      </trkpt>
      <trkpt lat="48.88994" lon="2.36428">
        <ele>51.599998474121</ele>
        <time>2016-04-18T19:28:45Z</time>
      </trkpt>
      <trkpt lat="48.88995" lon="2.36397">
        <ele>52.599998474121</ele>
        <time>2016-04-18T19:28:51Z</time>
      </trkpt>
      <trkpt lat="48.88994" lon="2.36369">
        <ele>53.400001525879</ele>
        <time>2016-04-18T19:28:57Z</time>
      </trkpt>
      <trkpt lat="48.88997" lon="2.36341">
        <ele>54.20000076294</ele>
        <time>2016-04-18T19:29:04Z</time>
      </trkpt>
      <trkpt lat="48.89003" lon="2.36321">
        <ele>55.79999923706</ele>
        <time>2016-04-18T19:29:13Z</time>
      </trkpt>
      <trkpt lat="48.89019" lon="2.36309">
        <ele>56.599998474121</ele>
        <time>2016-04-18T19:29:33Z</time>
      </trkpt>
      <trkpt lat="48.89038" lon="2.36307">
        <ele>56.79999923706</ele>
        <time>2016-04-18T19:29:39Z</time>
      </trkpt>
      <trkpt lat="48.89057" lon="2.36313">
        <ele>56.79999923706</ele>
        <time>2016-04-18T19:29:46Z</time>
      </trkpt>
      <trkpt lat="48.89075" lon="2.36317">
        <ele>57</ele>
        <time>2016-04-18T19:29:51Z</time>
      </trkpt>
      <trkpt lat="48.89094" lon="2.36321">
        <ele>57</ele>
        <time>2016-04-18T19:29:57Z</time>
      </trkpt>
      <trkpt lat="48.89114" lon="2.36323">
        <ele>57</ele>
        <time>2016-04-18T19:30:03Z</time>
      </trkpt>
      <trkpt lat="48.89136" lon="2.36327">
        <ele>57.400001525879</ele>
        <time>2016-04-18T19:30:07Z</time>
      </trkpt>
      <trkpt lat="48.89157" lon="2.36328">
        <ele>57.599998474121</ele>
        <time>2016-04-18T19:30:10Z</time>
      </trkpt>
      <trkpt lat="48.89177" lon="2.36326">
        <ele>57.79999923706</ele>
        <time>2016-04-18T19:30:14Z</time>
      </trkpt>
      <trkpt lat="48.89184" lon="2.36324">
        <ele>57.79999923706</ele>
        <time>2016-04-18T19:30:16Z</time>
      </trkpt>
      <trkpt lat="48.89194" lon="2.36323">
        <ele>58.20000076294</ele>
        <time>2016-04-18T19:30:19Z</time>
      </trkpt>
      <trkpt lat="48.89212" lon="2.36328">
        <ele>58.20000076294</ele>
        <time>2016-04-18T19:30:23Z</time>
      </trkpt>
      <trkpt lat="48.8923" lon="2.36333">
        <ele>58.400001525879</ele>
        <time>2016-04-18T19:30:26Z</time>
      </trkpt>
      <trkpt lat="48.89254" lon="2.36341">
        <ele>58.599998474121</ele>
        <time>2016-04-18T19:30:29Z</time>
      </trkpt>
      <trkpt lat="48.89276" lon="2.36347">
        <ele>58.400001525879</ele>
        <time>2016-04-18T19:30:32Z</time>
      </trkpt>
      <trkpt lat="48.89298" lon="2.36358">
        <ele>56.599998474121</ele>
        <time>2016-04-18T19:30:36Z</time>
      </trkpt>
      <trkpt lat="48.89311" lon="2.36364">
        <ele>55.599998474121</ele>
        <time>2016-04-18T19:30:39Z</time>
      </trkpt>
      <trkpt lat="48.89328" lon="2.36358">
        <ele>55</ele>
        <time>2016-04-18T19:30:43Z</time>
      </trkpt>
      <trkpt lat="48.89326" lon="2.3634">
        <ele>56</ele>
        <time>2016-04-18T19:30:51Z</time>
      </trkpt>
      <trkpt lat="48.8932" lon="2.36338">
        <ele>56.400001525879</ele>
        <time>2016-04-18T19:30:55Z</time>
      </trkpt>
      <trkpt lat="48.89321" lon="2.36334">
        <ele>56.599998474121</ele>
        <time>2016-04-18T19:31:13Z</time>
      </trkpt>
      <trkpt lat="48.89319" lon="2.36326">
        <ele>56.599998474121</ele>
        <time>2016-04-18T19:31:17Z</time>
      </trkpt>
      <trkpt lat="48.89324" lon="2.36294">
        <ele>56</ele>
        <time>2016-04-18T19:31:26Z</time>
      </trkpt>
      <trkpt lat="48.89327" lon="2.36263">
        <ele>57</ele>
        <time>2016-04-18T19:31:31Z</time>
      </trkpt>
      <trkpt lat="48.89329" lon="2.36236">
        <ele>57.599998474121</ele>
        <time>2016-04-18T19:31:36Z</time>
      </trkpt>
      <trkpt lat="48.89331" lon="2.36205">
        <ele>57.400001525879</ele>
        <time>2016-04-18T19:31:42Z</time>
      </trkpt>
      <trkpt lat="48.89327" lon="2.36172">
        <ele>57.20000076294</ele>
        <time>2016-04-18T19:31:48Z</time>
      </trkpt>
      <trkpt lat="48.89331" lon="2.36145">
        <ele>57.20000076294</ele>
        <time>2016-04-18T19:31:53Z</time>
      </trkpt>
      <trkpt lat="48.89337" lon="2.36116">
        <ele>56.599998474121</ele>
        <time>2016-04-18T19:31:58Z</time>
      </trkpt>
      <trkpt lat="48.89337" lon="2.36084">
        <ele>55.79999923706</ele>
        <time>2016-04-18T19:32:02Z</time>
      </trkpt>
      <trkpt lat="48.89336" lon="2.36055">
        <ele>56.400001525879</ele>
        <time>2016-04-18T19:32:06Z</time>
      </trkpt>
      <trkpt lat="48.89339" lon="2.36024">
        <ele>56</ele>
        <time>2016-04-18T19:32:12Z</time>
      </trkpt>
      <trkpt lat="48.89347" lon="2.35999">
        <ele>55.400001525879</ele>
        <time>2016-04-18T19:32:17Z</time>
      </trkpt>
      <trkpt lat="48.89337" lon="2.3598">
        <ele>55.79999923706</ele>
        <time>2016-04-18T19:32:24Z</time>
      </trkpt>
      <trkpt lat="48.89319" lon="2.35978">
        <ele>56.400001525879</ele>
        <time>2016-04-18T19:32:29Z</time>
      </trkpt>
      <trkpt lat="48.89298" lon="2.35973">
        <ele>57</ele>
        <time>2016-04-18T19:32:34Z</time>
      </trkpt>
      <trkpt lat="48.89279" lon="2.35977">
        <ele>57.79999923706</ele>
        <time>2016-04-18T19:32:40Z</time>
      </trkpt>
      <trkpt lat="48.89258" lon="2.35978">
        <ele>58.400001525879</ele>
        <time>2016-04-18T19:32:46Z</time>
      </trkpt>
      <trkpt lat="48.89234" lon="2.35976">
        <ele>59</ele>
        <time>2016-04-18T19:32:51Z</time>
      </trkpt>
      <trkpt lat="48.89216" lon="2.35979">
        <ele>59.400001525879</ele>
        <time>2016-04-18T19:32:55Z</time>
      </trkpt>
      <trkpt lat="48.89194" lon="2.35983">
        <ele>60</ele>
        <time>2016-04-18T19:33:00Z</time>
      </trkpt>
      <trkpt lat="48.89175" lon="2.35985">
        <ele>60.20000076294</ele>
        <time>2016-04-18T19:33:04Z</time>
      </trkpt>
      <trkpt lat="48.89156" lon="2.35991">
        <ele>60.20000076294</ele>
        <time>2016-04-18T19:33:09Z</time>
      </trkpt>
      <trkpt lat="48.89143" lon="2.35995">
        <ele>60</ele>
        <time>2016-04-18T19:33:13Z</time>
      </trkpt>
      <trkpt lat="48.89127" lon="2.35995">
        <ele>60</ele>
        <time>2016-04-18T19:33:17Z</time>
      </trkpt>
      <trkpt lat="48.89106" lon="2.35999">
        <ele>60</ele>
        <time>2016-04-18T19:33:21Z</time>
      </trkpt>
      <trkpt lat="48.89086" lon="2.36007">
        <ele>59.400001525879</ele>
        <time>2016-04-18T19:33:25Z</time>
      </trkpt>
      <trkpt lat="48.89069" lon="2.36014">
        <ele>58.79999923706</ele>
        <time>2016-04-18T19:33:29Z</time>
      </trkpt>
      <trkpt lat="48.8905" lon="2.36005">
        <ele>58.599998474121</ele>
        <time>2016-04-18T19:33:34Z</time>
      </trkpt>
      <trkpt lat="48.89048" lon="2.35971">
        <ele>59.20000076294</ele>
        <time>2016-04-18T19:33:38Z</time>
      </trkpt>
      <trkpt lat="48.89047" lon="2.35964">
        <ele>59.400001525879</ele>
        <time>2016-04-18T19:33:39Z</time>
      </trkpt>
      <trkpt lat="48.89044" lon="2.35935">
        <ele>60</ele>
        <time>2016-04-18T19:33:43Z</time>
      </trkpt>
      <trkpt lat="48.89045" lon="2.35928">
        <ele>60.20000076294</ele>
        <time>2016-04-18T19:33:44Z</time>
      </trkpt>
      <trkpt lat="48.89044" lon="2.35893">
        <ele>60</ele>
        <time>2016-04-18T19:33:48Z</time>
      </trkpt>
      <trkpt lat="48.89046" lon="2.35865">
        <ele>59.400001525879</ele>
        <time>2016-04-18T19:33:52Z</time>
      </trkpt>
      <trkpt lat="48.89048" lon="2.35835">
        <ele>58.599998474121</ele>
        <time>2016-04-18T19:33:56Z</time>
      </trkpt>
      <trkpt lat="48.8904" lon="2.35806">
        <ele>56.599998474121</ele>
        <time>2016-04-18T19:34:00Z</time>
      </trkpt>
      <trkpt lat="48.89036" lon="2.35772">
        <ele>54</ele>
        <time>2016-04-18T19:34:05Z</time>
      </trkpt>
      <trkpt lat="48.89036" lon="2.35751">
        <ele>52.400001525879</ele>
        <time>2016-04-18T19:34:08Z</time>
      </trkpt>
      <trkpt lat="48.89035" lon="2.35723">
        <ele>52.400001525879</ele>
        <time>2016-04-18T19:34:12Z</time>
      </trkpt>
      <trkpt lat="48.89037" lon="2.35689">
        <ele>52.79999923706</ele>
        <time>2016-04-18T19:34:17Z</time>
      </trkpt>
      <trkpt lat="48.89038" lon="2.35682">
        <ele>52.79999923706</ele>
        <time>2016-04-18T19:34:18Z</time>
      </trkpt>
      <trkpt lat="48.89038" lon="2.35656">
        <ele>52.400001525879</ele>
        <time>2016-04-18T19:34:22Z</time>
      </trkpt>
      <trkpt lat="48.89038" lon="2.35636">
        <ele>53.79999923706</ele>
        <time>2016-04-18T19:34:25Z</time>
      </trkpt>
      <trkpt lat="48.89041" lon="2.35614">
        <ele>55.20000076294</ele>
        <time>2016-04-18T19:34:29Z</time>
      </trkpt>
      <trkpt lat="48.89047" lon="2.35595">
        <ele>55.79999923706</ele>
        <time>2016-04-18T19:34:33Z</time>
      </trkpt>
      <trkpt lat="48.89052" lon="2.35566">
        <ele>55.400001525879</ele>
        <time>2016-04-18T19:34:39Z</time>
      </trkpt>
      <trkpt lat="48.89054" lon="2.35552">
        <ele>55</ele>
        <time>2016-04-18T19:34:42Z</time>
      </trkpt>
      <trkpt lat="48.89049" lon="2.35523">
        <ele>54.79999923706</ele>
        <time>2016-04-18T19:34:49Z</time>
      </trkpt>
      <trkpt lat="48.89042" lon="2.35494">
        <ele>56</ele>
        <time>2016-04-18T19:34:58Z</time>
      </trkpt>
      <trkpt lat="48.89043" lon="2.35465">
        <ele>56.599998474121</ele>
        <time>2016-04-18T19:35:03Z</time>
      </trkpt>
      <trkpt lat="48.89043" lon="2.35432">
        <ele>57.400001525879</ele>
        <time>2016-04-18T19:35:08Z</time>
      </trkpt>
      <trkpt lat="48.89045" lon="2.35402">
        <ele>57.599998474121</ele>
        <time>2016-04-18T19:35:12Z</time>
      </trkpt>
      <trkpt lat="48.89049" lon="2.35375">
        <ele>57.599998474121</ele>
        <time>2016-04-18T19:35:16Z</time>
      </trkpt>
      <trkpt lat="48.89048" lon="2.3534">
        <ele>58.400001525879</ele>
        <time>2016-04-18T19:35:21Z</time>
      </trkpt>
      <trkpt lat="48.89052" lon="2.35308">
        <ele>58.599998474121</ele>
        <time>2016-04-18T19:35:26Z</time>
      </trkpt>
      <trkpt lat="48.89052" lon="2.35276">
        <ele>58.599998474121</ele>
        <time>2016-04-18T19:35:32Z</time>
      </trkpt>
      <trkpt lat="48.89049" lon="2.35245">
        <ele>59.20000076294</ele>
        <time>2016-04-18T19:35:39Z</time>
      </trkpt>
      <trkpt lat="48.89058" lon="2.3522">
        <ele>60.400001525879</ele>
        <time>2016-04-18T19:35:45Z</time>
      </trkpt>
      <trkpt lat="48.89057" lon="2.35189">
        <ele>62.20000076294</ele>
        <time>2016-04-18T19:35:50Z</time>
      </trkpt>
      <trkpt lat="48.89055" lon="2.35158">
        <ele>63.79999923706</ele>
        <time>2016-04-18T19:35:55Z</time>
      </trkpt>
      <trkpt lat="48.89061" lon="2.3513">
        <ele>64.800003051758</ele>
        <time>2016-04-18T19:36:03Z</time>
      </trkpt>
      <trkpt lat="48.89065" lon="2.35101">
        <ele>65.800003051758</ele>
        <time>2016-04-18T19:36:12Z</time>
      </trkpt>
      <trkpt lat="48.89074" lon="2.35075">
        <ele>66</ele>
        <time>2016-04-18T19:36:20Z</time>
      </trkpt>
      <trkpt lat="48.89076" lon="2.35061">
        <ele>66</ele>
        <time>2016-04-18T19:36:26Z</time>
      </trkpt>
      <trkpt lat="48.89066" lon="2.3504">
        <ele>67</ele>
        <time>2016-04-18T19:36:40Z</time>
      </trkpt>
      <trkpt lat="48.89063" lon="2.3503">
        <ele>67.400001525879</ele>
        <time>2016-04-18T19:36:45Z</time>
      </trkpt>
      <trkpt lat="48.89061" lon="2.35003">
        <ele>68.400001525879</ele>
        <time>2016-04-18T19:36:55Z</time>
      </trkpt>
      <trkpt lat="48.89064" lon="2.34993">
        <ele>68.400001525879</ele>
        <time>2016-04-18T19:37:02Z</time>
      </trkpt>
      <trkpt lat="48.89062" lon="2.34984">
        <ele>68.400001525879</ele>
        <time>2016-04-18T19:37:11Z</time>
      </trkpt>
      <trkpt lat="48.89053" lon="2.34973">
        <ele>68.599998474121</ele>
        <time>2016-04-18T19:37:37Z</time>
      </trkpt>
      <trkpt lat="48.89059" lon="2.34974">
        <ele>68.400001525879</ele>
        <time>2016-04-18T19:38:00Z</time>
      </trkpt>
      <trkpt lat="48.89066" lon="2.34971">
        <ele>68.199996948242</ele>
        <time>2016-04-18T19:38:09Z</time>
      </trkpt>
      <trkpt lat="48.89066" lon="2.34971">
        <ele>68.199996948242</ele>
        <time>2016-04-18T19:38:11Z</time>
      </trkpt>
      <trkpt lat="48.89067" lon="2.34972">
        <ele>68.199996948242</ele>
        <time>2016-04-18T19:38:15Z</time>
      </trkpt>
      <trkpt lat="48.89053" lon="2.34958">
        <ele>68.400001525879</ele>
        <time>2016-04-18T19:38:36Z</time>
      </trkpt>
      <trkpt lat="48.89034" lon="2.3496">
        <ele>69.199996948242</ele>
        <time>2016-04-18T19:38:45Z</time>
      </trkpt>
      <trkpt lat="48.89012" lon="2.34963">
        <ele>70.400001525879</ele>
        <time>2016-04-18T19:38:51Z</time>
      </trkpt>
      <trkpt lat="48.88992" lon="2.34956">
        <ele>71.800003051758</ele>
        <time>2016-04-18T19:38:54Z</time>
      </trkpt>
      <trkpt lat="48.88973" lon="2.34951">
        <ele>73</ele>
        <time>2016-04-18T19:38:58Z</time>
      </trkpt>
      <trkpt lat="48.88954" lon="2.34945">
        <ele>74</ele>
        <time>2016-04-18T19:39:03Z</time>
      </trkpt>
      <trkpt lat="48.88945" lon="2.34937">
        <ele>74.599998474121</ele>
        <time>2016-04-18T19:39:07Z</time>
      </trkpt>
      <trkpt lat="48.88934" lon="2.34914">
        <ele>75.199996948242</ele>
        <time>2016-04-18T19:39:13Z</time>
      </trkpt>
      <trkpt lat="48.88925" lon="2.34886">
        <ele>75.800003051758</ele>
        <time>2016-04-18T19:39:23Z</time>
      </trkpt>
      <trkpt lat="48.88924" lon="2.34872">
        <ele>75.599998474121</ele>
        <time>2016-04-18T19:39:28Z</time>
      </trkpt>
      <trkpt lat="48.88919" lon="2.34858">
        <ele>75.800003051758</ele>
        <time>2016-04-18T19:39:34Z</time>
      </trkpt>
      <trkpt lat="48.88908" lon="2.34832">
        <ele>76.199996948242</ele>
        <time>2016-04-18T19:39:48Z</time>
      </trkpt>
      <trkpt lat="48.88913" lon="2.34828">
        <ele>76</ele>
        <time>2016-04-18T19:39:52Z</time>
      </trkpt>
      <trkpt lat="48.88914" lon="2.34826">
        <ele>76</ele>
        <time>2016-04-18T19:39:55Z</time>
      </trkpt>
      <trkpt lat="48.88894" lon="2.34825">
        <ele>77.400001525879</ele>
        <time>2016-04-18T19:40:04Z</time>
      </trkpt>
      <trkpt lat="48.88876" lon="2.34822">
        <ele>79</ele>
        <time>2016-04-18T19:40:14Z</time>
      </trkpt>
      <trkpt lat="48.88862" lon="2.34809">
        <ele>80.400001525879</ele>
        <time>2016-04-18T19:40:21Z</time>
      </trkpt>
      <trkpt lat="48.88843" lon="2.34807">
        <ele>81.800003051758</ele>
        <time>2016-04-18T19:40:29Z</time>
      </trkpt>
      <trkpt lat="48.88825" lon="2.34803">
        <ele>83.199996948242</ele>
        <time>2016-04-18T19:40:38Z</time>
      </trkpt>
      <trkpt lat="48.88805" lon="2.348">
        <ele>84.400001525879</ele>
        <time>2016-04-18T19:40:43Z</time>
      </trkpt>
      <trkpt lat="48.88787" lon="2.34797">
        <ele>85.400001525879</ele>
        <time>2016-04-18T19:40:47Z</time>
      </trkpt>
      <trkpt lat="48.88769" lon="2.3479">
        <ele>86.199996948242</ele>
        <time>2016-04-18T19:40:51Z</time>
      </trkpt>
      <trkpt lat="48.8875" lon="2.34787">
        <ele>85.800003051758</ele>
        <time>2016-04-18T19:40:57Z</time>
      </trkpt>
      <trkpt lat="48.88731" lon="2.34779">
        <ele>85.599998474121</ele>
        <time>2016-04-18T19:41:05Z</time>
      </trkpt>
      <trkpt lat="48.88713" lon="2.34768">
        <ele>85.599998474121</ele>
        <time>2016-04-18T19:41:13Z</time>
      </trkpt>
      <trkpt lat="48.88712" lon="2.34767">
        <ele>85.599998474121</ele>
        <time>2016-04-18T19:41:14Z</time>
      </trkpt>
      <trkpt lat="48.8871" lon="2.34761">
        <ele>86</ele>
        <time>2016-04-18T19:41:24Z</time>
      </trkpt>
      <trkpt lat="48.88708" lon="2.34771">
        <ele>85.199996948242</ele>
        <time>2016-04-18T19:41:36Z</time>
      </trkpt>
      <trkpt lat="48.88725" lon="2.34763">
        <ele>86.400001525879</ele>
        <time>2016-04-18T19:41:51Z</time>
      </trkpt>
      <trkpt lat="48.88736" lon="2.34745">
        <ele>87.599998474121</ele>
        <time>2016-04-18T19:41:58Z</time>
      </trkpt>
      <trkpt lat="48.88742" lon="2.34738">
        <ele>88</ele>
        <time>2016-04-18T19:42:13Z</time>
      </trkpt>
      <trkpt lat="48.88752" lon="2.34711">
        <ele>88.800003051758</ele>
        <time>2016-04-18T19:42:38Z</time>
      </trkpt>
      <trkpt lat="48.88763" lon="2.34699">
        <ele>89.599998474121</ele>
        <time>2016-04-18T19:42:42Z</time>
      </trkpt>
      <trkpt lat="48.88767" lon="2.34672">
        <ele>90.599998474121</ele>
        <time>2016-04-18T19:42:49Z</time>
      </trkpt>
      <trkpt lat="48.88771" lon="2.34642">
        <ele>93.199996948242</ele>
        <time>2016-04-18T19:42:58Z</time>
      </trkpt>
      <trkpt lat="48.88773" lon="2.3464">
        <ele>93.599998474121</ele>
        <time>2016-04-18T19:42:59Z</time>
      </trkpt>
      <trkpt lat="48.88786" lon="2.34632">
        <ele>94.199996948242</ele>
        <time>2016-04-18T19:43:07Z</time>
      </trkpt>
      <trkpt lat="48.88789" lon="2.34627">
        <ele>94.599998474121</ele>
        <time>2016-04-18T19:43:11Z</time>
      </trkpt>
      <trkpt lat="48.88794" lon="2.34622">
        <ele>95</ele>
        <time>2016-04-18T19:43:16Z</time>
      </trkpt>
      <trkpt lat="48.88796" lon="2.34596">
        <ele>97.400001525879</ele>
        <time>2016-04-18T19:43:28Z</time>
      </trkpt>
      <trkpt lat="48.88792" lon="2.34594">
        <ele>97.800003051758</ele>
        <time>2016-04-18T19:43:30Z</time>
      </trkpt>
      <trkpt lat="48.88789" lon="2.34585">
        <ele>98.400001525879</ele>
        <time>2016-04-18T19:43:41Z</time>
      </trkpt>
      <trkpt lat="48.88792" lon="2.34577">
        <ele>98.800003051758</ele>
        <time>2016-04-18T19:43:46Z</time>
      </trkpt>
      <trkpt lat="48.88782" lon="2.34563">
        <ele>100.80000305176</ele>
        <time>2016-04-18T19:43:59Z</time>
      </trkpt>
      <trkpt lat="48.88777" lon="2.34547">
        <ele>102.59999847412</ele>
        <time>2016-04-18T19:44:22Z</time>
      </trkpt>
      <trkpt lat="48.88767" lon="2.34541">
        <ele>103</ele>
        <time>2016-04-18T19:44:34Z</time>
      </trkpt>
      <trkpt lat="48.88758" lon="2.3453">
        <ele>103.40000152588</ele>
        <time>2016-04-18T19:44:47Z</time>
      </trkpt>
      <trkpt lat="48.88759" lon="2.34523">
        <ele>104</ele>
        <time>2016-04-18T19:45:01Z</time>
      </trkpt>
      <trkpt lat="48.88763" lon="2.3452">
        <ele>104.40000152588</ele>
        <time>2016-04-18T19:45:05Z</time>
      </trkpt>
      <trkpt lat="48.88766" lon="2.3452">
        <ele>104.59999847412</ele>
        <time>2016-04-18T19:45:07Z</time>
      </trkpt>
      <trkpt lat="48.88772" lon="2.34519">
        <ele>105.19999694824</ele>
        <time>2016-04-18T19:46:14Z</time>
      </trkpt>
      <trkpt lat="48.8877" lon="2.34502">
        <ele>106.40000152588</ele>
        <time>2016-04-18T19:47:09Z</time>
      </trkpt>
      <trkpt lat="48.88768" lon="2.345">
        <ele>106.40000152588</ele>
        <time>2016-04-18T19:47:10Z</time>
      </trkpt>
      <trkpt lat="48.88765" lon="2.34484">
        <ele>108.40000152588</ele>
        <time>2016-04-18T19:47:16Z</time>
      </trkpt>
      <trkpt lat="48.8876" lon="2.34457">
        <ele>110.80000305176</ele>
        <time>2016-04-18T19:47:28Z</time>
      </trkpt>
      <trkpt lat="48.88759" lon="2.34457">
        <ele>111</ele>
        <time>2016-04-18T19:47:29Z</time>
      </trkpt>
      <trkpt lat="48.88748" lon="2.34456">
        <ele>111.40000152588</ele>
        <time>2016-04-18T19:47:36Z</time>
      </trkpt>
      <trkpt lat="48.88744" lon="2.34454">
        <ele>111.59999847412</ele>
        <time>2016-04-18T19:47:39Z</time>
      </trkpt>
      <trkpt lat="48.88726" lon="2.34451">
        <ele>112.59999847412</ele>
        <time>2016-04-18T19:47:48Z</time>
      </trkpt>
      <trkpt lat="48.8872" lon="2.34452">
        <ele>112</ele>
        <time>2016-04-18T19:47:53Z</time>
      </trkpt>
      <trkpt lat="48.88726" lon="2.34452">
        <ele>112.40000152588</ele>
        <time>2016-04-18T19:48:01Z</time>
      </trkpt>
      <trkpt lat="48.88733" lon="2.34448">
        <ele>112.59999847412</ele>
        <time>2016-04-18T19:48:09Z</time>
      </trkpt>
      <trkpt lat="48.88745" lon="2.34439">
        <ele>113</ele>
        <time>2016-04-18T19:48:26Z</time>
      </trkpt>
      <trkpt lat="48.8875" lon="2.34438">
        <ele>112.80000305176</ele>
        <time>2016-04-18T19:48:31Z</time>
      </trkpt>
      <trkpt lat="48.88739" lon="2.34421">
        <ele>114.59999847412</ele>
        <time>2016-04-18T19:49:18Z</time>
      </trkpt>
      <trkpt lat="48.88729" lon="2.34396">
        <ele>117.80000305176</ele>
        <time>2016-04-18T19:49:31Z</time>
      </trkpt>
      <trkpt lat="48.88727" lon="2.34366">
        <ele>121.40000152588</ele>
        <time>2016-04-18T19:49:41Z</time>
      </trkpt>
      <trkpt lat="48.88726" lon="2.34364">
        <ele>121.59999847412</ele>
        <time>2016-04-18T19:49:42Z</time>
      </trkpt>
      <trkpt lat="48.88726" lon="2.34358">
        <ele>122.19999694824</ele>
        <time>2016-04-18T19:49:45Z</time>
      </trkpt>
      <trkpt lat="48.88727" lon="2.34352">
        <ele>123</ele>
        <time>2016-04-18T19:49:48Z</time>
      </trkpt>
      <trkpt lat="48.88731" lon="2.3434">
        <ele>124</ele>
        <time>2016-04-18T19:50:13Z</time>
      </trkpt>
      <trkpt lat="48.88738" lon="2.34326">
        <ele>124.80000305176</ele>
        <time>2016-04-18T19:51:16Z</time>
      </trkpt>
      <trkpt lat="48.88745" lon="2.34326">
        <ele>124.40000152588</ele>
        <time>2016-04-18T19:52:23Z</time>
      </trkpt>
      <trkpt lat="48.8874" lon="2.3432">
        <ele>124.80000305176</ele>
        <time>2016-04-18T19:52:30Z</time>
      </trkpt>
      <trkpt lat="48.88734" lon="2.34293">
        <ele>125.80000305176</ele>
        <time>2016-04-18T19:52:50Z</time>
      </trkpt>
      <trkpt lat="48.88734" lon="2.34289">
        <ele>126</ele>
        <time>2016-04-18T19:52:53Z</time>
      </trkpt>
      <trkpt lat="48.88732" lon="2.3428">
        <ele>126.59999847412</ele>
        <time>2016-04-18T19:53:01Z</time>
      </trkpt>
      <trkpt lat="48.88719" lon="2.3426">
        <ele>128</ele>
        <time>2016-04-18T19:53:09Z</time>
      </trkpt>
      <trkpt lat="48.88716" lon="2.34256">
        <ele>128.39999389648</ele>
        <time>2016-04-18T19:53:11Z</time>
      </trkpt>
      <trkpt lat="48.88709" lon="2.3425">
        <ele>128.80000305176</ele>
        <time>2016-04-18T19:53:17Z</time>
      </trkpt>
      <trkpt lat="48.88697" lon="2.34249">
        <ele>128.80000305176</ele>
        <time>2016-04-18T19:53:51Z</time>
      </trkpt>
      <trkpt lat="48.88677" lon="2.34254">
        <ele>127.19999694824</ele>
        <time>2016-04-18T19:54:01Z</time>
      </trkpt>
      <trkpt lat="48.88659" lon="2.34264">
        <ele>124.59999847412</ele>
        <time>2016-04-18T19:54:15Z</time>
      </trkpt>
      <trkpt lat="48.88658" lon="2.34266">
        <ele>124.40000152588</ele>
        <time>2016-04-18T19:54:17Z</time>
      </trkpt>
      <trkpt lat="48.88642" lon="2.34272">
        <ele>122.19999694824</ele>
        <time>2016-04-18T19:54:31Z</time>
      </trkpt>
      <trkpt lat="48.88635" lon="2.3428">
        <ele>120.80000305176</ele>
        <time>2016-04-18T19:54:43Z</time>
      </trkpt>
      <trkpt lat="48.88615" lon="2.34281">
        <ele>117</ele>
        <time>2016-04-18T19:54:59Z</time>
      </trkpt>
      <trkpt lat="48.88616" lon="2.34286">
        <ele>117</ele>
        <time>2016-04-18T19:55:45Z</time>
      </trkpt>
      <trkpt lat="48.88615" lon="2.34313">
        <ele>114.80000305176</ele>
        <time>2016-04-18T19:56:18Z</time>
      </trkpt>
      <trkpt lat="48.88615" lon="2.34339">
        <ele>112.59999847412</ele>
        <time>2016-04-18T19:56:53Z</time>
      </trkpt>
      <trkpt lat="48.88624" lon="2.34361">
        <ele>111.80000305176</ele>
        <time>2016-04-18T19:57:15Z</time>
      </trkpt>
      <trkpt lat="48.88626" lon="2.34378">
        <ele>110.40000152588</ele>
        <time>2016-04-18T19:58:00Z</time>
      </trkpt>
      <trkpt lat="48.88618" lon="2.344">
        <ele>106.59999847412</ele>
        <time>2016-04-18T19:58:38Z</time>
      </trkpt>
      <trkpt lat="48.88626" lon="2.34401">
        <ele>107.59999847412</ele>
        <time>2016-04-18T19:59:24Z</time>
      </trkpt>
      <trkpt lat="48.88636" lon="2.34393">
        <ele>110.40000152588</ele>
        <time>2016-04-18T20:00:03Z</time>
      </trkpt>
      <trkpt lat="48.88653" lon="2.34406">
        <ele>111.59999847412</ele>
        <time>2016-04-18T20:00:12Z</time>
      </trkpt>
      <trkpt lat="48.88672" lon="2.34411">
        <ele>114.19999694824</ele>
        <time>2016-04-18T20:00:20Z</time>
      </trkpt>
      <trkpt lat="48.88692" lon="2.34428">
        <ele>114.80000305176</ele>
        <time>2016-04-18T20:00:23Z</time>
      </trkpt>
      <trkpt lat="48.88711" lon="2.34437">
        <ele>114.19999694824</ele>
        <time>2016-04-18T20:00:26Z</time>
      </trkpt>
      <trkpt lat="48.88729" lon="2.34444">
        <ele>113</ele>
        <time>2016-04-18T20:00:31Z</time>
      </trkpt>
      <trkpt lat="48.88742" lon="2.34451">
        <ele>112</ele>
        <time>2016-04-18T20:00:34Z</time>
      </trkpt>
      <trkpt lat="48.88753" lon="2.3445">
        <ele>111.80000305176</ele>
        <time>2016-04-18T20:00:43Z</time>
      </trkpt>
      <trkpt lat="48.88773" lon="2.34443">
        <ele>111.59999847412</ele>
        <time>2016-04-18T20:00:50Z</time>
      </trkpt>
      <trkpt lat="48.88793" lon="2.34432">
        <ele>110.80000305176</ele>
        <time>2016-04-18T20:00:56Z</time>
      </trkpt>
      <trkpt lat="48.88813" lon="2.34424">
        <ele>110</ele>
        <time>2016-04-18T20:01:01Z</time>
      </trkpt>
      <trkpt lat="48.88832" lon="2.34415">
        <ele>109.80000305176</ele>
        <time>2016-04-18T20:01:05Z</time>
      </trkpt>
      <trkpt lat="48.88849" lon="2.34406">
        <ele>109.40000152588</ele>
        <time>2016-04-18T20:01:09Z</time>
      </trkpt>
      <trkpt lat="48.88869" lon="2.34399">
        <ele>107.59999847412</ele>
        <time>2016-04-18T20:01:13Z</time>
      </trkpt>
      <trkpt lat="48.88886" lon="2.34394">
        <ele>105.80000305176</ele>
        <time>2016-04-18T20:01:17Z</time>
      </trkpt>
      <trkpt lat="48.88898" lon="2.34385">
        <ele>105.19999694824</ele>
        <time>2016-04-18T20:01:21Z</time>
      </trkpt>
      <trkpt lat="48.88905" lon="2.34366">
        <ele>105.59999847412</ele>
        <time>2016-04-18T20:01:25Z</time>
      </trkpt>
      <trkpt lat="48.88914" lon="2.3434">
        <ele>105.80000305176</ele>
        <time>2016-04-18T20:01:30Z</time>
      </trkpt>
      <trkpt lat="48.88924" lon="2.34314">
        <ele>106.19999694824</ele>
        <time>2016-04-18T20:01:35Z</time>
      </trkpt>
      <trkpt lat="48.88925" lon="2.34284">
        <ele>106.19999694824</ele>
        <time>2016-04-18T20:01:40Z</time>
      </trkpt>
      <trkpt lat="48.88922" lon="2.34253">
        <ele>107.19999694824</ele>
        <time>2016-04-18T20:01:45Z</time>
      </trkpt>
      <trkpt lat="48.88931" lon="2.34226">
        <ele>105.80000305176</ele>
        <time>2016-04-18T20:01:50Z</time>
      </trkpt>
      <trkpt lat="48.88937" lon="2.34198">
        <ele>104.59999847412</ele>
        <time>2016-04-18T20:01:55Z</time>
      </trkpt>
      <trkpt lat="48.88939" lon="2.3417">
        <ele>104.19999694824</ele>
        <time>2016-04-18T20:02:00Z</time>
      </trkpt>
      <trkpt lat="48.88949" lon="2.34144">
        <ele>103.19999694824</ele>
        <time>2016-04-18T20:02:05Z</time>
      </trkpt>
      <trkpt lat="48.88959" lon="2.34115">
        <ele>102.40000152588</ele>
        <time>2016-04-18T20:02:11Z</time>
      </trkpt>
      <trkpt lat="48.8897" lon="2.34088">
        <ele>100.80000305176</ele>
        <time>2016-04-18T20:02:17Z</time>
      </trkpt>
      <trkpt lat="48.88977" lon="2.34066">
        <ele>99.199996948242</ele>
        <time>2016-04-18T20:02:25Z</time>
      </trkpt>
      <trkpt lat="48.88969" lon="2.3406">
        <ele>100.40000152588</ele>
        <time>2016-04-18T20:02:34Z</time>
      </trkpt>
      <trkpt lat="48.88963" lon="2.34056">
        <ele>101.19999694824</ele>
        <time>2016-04-18T20:02:50Z</time>
      </trkpt>
      <trkpt lat="48.88958" lon="2.34042">
        <ele>101.59999847412</ele>
        <time>2016-04-18T20:03:28Z</time>
      </trkpt>
      <trkpt lat="48.8897" lon="2.34021">
        <ele>99</ele>
        <time>2016-04-18T20:03:41Z</time>
      </trkpt>
      <trkpt lat="48.88972" lon="2.33991">
        <ele>98.800003051758</ele>
        <time>2016-04-18T20:03:51Z</time>
      </trkpt>
      <trkpt lat="48.88971" lon="2.3396">
        <ele>97.400001525879</ele>
        <time>2016-04-18T20:03:57Z</time>
      </trkpt>
      <trkpt lat="48.88967" lon="2.3393">
        <ele>97</ele>
        <time>2016-04-18T20:04:02Z</time>
      </trkpt>
      <trkpt lat="48.88967" lon="2.339">
        <ele>97.599998474121</ele>
        <time>2016-04-18T20:04:07Z</time>
      </trkpt>
      <trkpt lat="48.88967" lon="2.3387">
        <ele>98.599998474121</ele>
        <time>2016-04-18T20:04:12Z</time>
      </trkpt>
      <trkpt lat="48.8897" lon="2.33838">
        <ele>99</ele>
        <time>2016-04-18T20:04:17Z</time>
      </trkpt>
      <trkpt lat="48.88964" lon="2.3381">
        <ele>100.40000152588</ele>
        <time>2016-04-18T20:04:21Z</time>
      </trkpt>
      <trkpt lat="48.88958" lon="2.33779">
        <ele>102.19999694824</ele>
        <time>2016-04-18T20:04:26Z</time>
      </trkpt>
      <trkpt lat="48.88954" lon="2.33746">
        <ele>103</ele>
        <time>2016-04-18T20:04:31Z</time>
      </trkpt>
      <trkpt lat="48.88955" lon="2.33717">
        <ele>103.59999847412</ele>
        <time>2016-04-18T20:04:36Z</time>
      </trkpt>
      <trkpt lat="48.88957" lon="2.33708">
        <ele>103.40000152588</ele>
        <time>2016-04-18T20:04:38Z</time>
      </trkpt>
      <trkpt lat="48.8896" lon="2.33678">
        <ele>103.59999847412</ele>
        <time>2016-04-18T20:04:46Z</time>
      </trkpt>
      <trkpt lat="48.88959" lon="2.33673">
        <ele>103.80000305176</ele>
        <time>2016-04-18T20:04:47Z</time>
      </trkpt>
      <trkpt lat="48.88958" lon="2.33641">
        <ele>103.59999847412</ele>
        <time>2016-04-18T20:04:53Z</time>
      </trkpt>
      <trkpt lat="48.88956" lon="2.3361">
        <ele>103.59999847412</ele>
        <time>2016-04-18T20:04:58Z</time>
      </trkpt>
      <trkpt lat="48.8896" lon="2.33578">
        <ele>102.40000152588</ele>
        <time>2016-04-18T20:05:04Z</time>
      </trkpt>
      <trkpt lat="48.88958" lon="2.3355">
        <ele>102.59999847412</ele>
        <time>2016-04-18T20:05:11Z</time>
      </trkpt>
      <trkpt lat="48.88956" lon="2.33543">
        <ele>103.19999694824</ele>
        <time>2016-04-18T20:05:15Z</time>
      </trkpt>
      <trkpt lat="48.8895" lon="2.3352">
        <ele>104</ele>
        <time>2016-04-18T20:05:44Z</time>
      </trkpt>
      <trkpt lat="48.88939" lon="2.33499">
        <ele>106</ele>
        <time>2016-04-18T20:05:49Z</time>
      </trkpt>
      <trkpt lat="48.88923" lon="2.33478">
        <ele>104.40000152588</ele>
        <time>2016-04-18T20:05:55Z</time>
      </trkpt>
      <trkpt lat="48.88907" lon="2.33466">
        <ele>103.40000152588</ele>
        <time>2016-04-18T20:05:59Z</time>
      </trkpt>
      <trkpt lat="48.88887" lon="2.33451">
        <ele>102</ele>
        <time>2016-04-18T20:06:04Z</time>
      </trkpt>
      <trkpt lat="48.88869" lon="2.33433">
        <ele>100.59999847412</ele>
        <time>2016-04-18T20:06:09Z</time>
      </trkpt>
      <trkpt lat="48.8885" lon="2.33424">
        <ele>99.599998474121</ele>
        <time>2016-04-18T20:06:14Z</time>
      </trkpt>
      <trkpt lat="48.88829" lon="2.33406">
        <ele>98.199996948242</ele>
        <time>2016-04-18T20:06:19Z</time>
      </trkpt>
      <trkpt lat="48.8881" lon="2.33395">
        <ele>97.599998474121</ele>
        <time>2016-04-18T20:06:23Z</time>
      </trkpt>
      <trkpt lat="48.88793" lon="2.33382">
        <ele>96.599998474121</ele>
        <time>2016-04-18T20:06:27Z</time>
      </trkpt>
      <trkpt lat="48.88776" lon="2.33364">
        <ele>95.599998474121</ele>
        <time>2016-04-18T20:06:31Z</time>
      </trkpt>
      <trkpt lat="48.8877" lon="2.33351">
        <ele>94.800003051758</ele>
        <time>2016-04-18T20:06:36Z</time>
      </trkpt>
      <trkpt lat="48.88753" lon="2.33335">
        <ele>92.800003051758</ele>
        <time>2016-04-18T20:06:41Z</time>
      </trkpt>
      <trkpt lat="48.88735" lon="2.33314">
        <ele>90</ele>
        <time>2016-04-18T20:06:45Z</time>
      </trkpt>
      <trkpt lat="48.8873" lon="2.33307">
        <ele>89.199996948242</ele>
        <time>2016-04-18T20:06:46Z</time>
      </trkpt>
      <trkpt lat="48.88716" lon="2.33288">
        <ele>86.800003051758</ele>
        <time>2016-04-18T20:06:48Z</time>
      </trkpt>
      <trkpt lat="48.88696" lon="2.33278">
        <ele>84.599998474121</ele>
        <time>2016-04-18T20:06:50Z</time>
      </trkpt>
      <trkpt lat="48.88683" lon="2.33263">
        <ele>82.599998474121</ele>
        <time>2016-04-18T20:06:53Z</time>
      </trkpt>
      <trkpt lat="48.88679" lon="2.3326">
        <ele>82.400001525879</ele>
        <time>2016-04-18T20:06:54Z</time>
      </trkpt>
      <trkpt lat="48.88661" lon="2.3326">
        <ele>81.199996948242</ele>
        <time>2016-04-18T20:06:59Z</time>
      </trkpt>
      <trkpt lat="48.88658" lon="2.33259">
        <ele>81</ele>
        <time>2016-04-18T20:07:00Z</time>
      </trkpt>
      <trkpt lat="48.88652" lon="2.33254">
        <ele>80.199996948242</ele>
        <time>2016-04-18T20:07:02Z</time>
      </trkpt>
      <trkpt lat="48.88637" lon="2.33234">
        <ele>77.599998474121</ele>
        <time>2016-04-18T20:07:07Z</time>
      </trkpt>
      <trkpt lat="48.88634" lon="2.3323">
        <ele>77</ele>
        <time>2016-04-18T20:07:08Z</time>
      </trkpt>
      <trkpt lat="48.8862" lon="2.33208">
        <ele>74.199996948242</ele>
        <time>2016-04-18T20:07:12Z</time>
      </trkpt>
      <trkpt lat="48.88607" lon="2.33185">
        <ele>71</ele>
        <time>2016-04-18T20:07:16Z</time>
      </trkpt>
      <trkpt lat="48.88592" lon="2.33158">
        <ele>69.599998474121</ele>
        <time>2016-04-18T20:07:20Z</time>
      </trkpt>
      <trkpt lat="48.88578" lon="2.33133">
        <ele>70.800003051758</ele>
        <time>2016-04-18T20:07:24Z</time>
      </trkpt>
      <trkpt lat="48.88564" lon="2.33107">
        <ele>71.599998474121</ele>
        <time>2016-04-18T20:07:28Z</time>
      </trkpt>
      <trkpt lat="48.88552" lon="2.33086">
        <ele>72.199996948242</ele>
        <time>2016-04-18T20:07:32Z</time>
      </trkpt>
      <trkpt lat="48.8855" lon="2.3308">
        <ele>72.400001525879</ele>
        <time>2016-04-18T20:07:33Z</time>
      </trkpt>
      <trkpt lat="48.88545" lon="2.33068">
        <ele>72.400001525879</ele>
        <time>2016-04-18T20:07:35Z</time>
      </trkpt>
      <trkpt lat="48.88528" lon="2.33047">
        <ele>73</ele>
        <time>2016-04-18T20:07:39Z</time>
      </trkpt>
      <trkpt lat="48.88513" lon="2.33032">
        <ele>73</ele>
        <time>2016-04-18T20:07:43Z</time>
      </trkpt>
      <trkpt lat="48.88497" lon="2.33011">
        <ele>72.599998474121</ele>
        <time>2016-04-18T20:07:48Z</time>
      </trkpt>
      <trkpt lat="48.88483" lon="2.32991">
        <ele>72.400001525879</ele>
        <time>2016-04-18T20:07:55Z</time>
      </trkpt>
      <trkpt lat="48.88479" lon="2.32977">
        <ele>72</ele>
        <time>2016-04-18T20:07:59Z</time>
      </trkpt>
      <trkpt lat="48.88465" lon="2.32955">
        <ele>71.599998474121</ele>
        <time>2016-04-18T20:08:04Z</time>
      </trkpt>
      <trkpt lat="48.88462" lon="2.32952">
        <ele>71.599998474121</ele>
        <time>2016-04-18T20:08:05Z</time>
      </trkpt>
      <trkpt lat="48.88446" lon="2.32932">
        <ele>71.400001525879</ele>
        <time>2016-04-18T20:08:09Z</time>
      </trkpt>
      <trkpt lat="48.88434" lon="2.32914">
        <ele>71</ele>
        <time>2016-04-18T20:08:12Z</time>
      </trkpt>
      <trkpt lat="48.88421" lon="2.32894">
        <ele>70.800003051758</ele>
        <time>2016-04-18T20:08:15Z</time>
      </trkpt>
      <trkpt lat="48.88417" lon="2.32887">
        <ele>70.599998474121</ele>
        <time>2016-04-18T20:08:16Z</time>
      </trkpt>
      <trkpt lat="48.88401" lon="2.32861">
        <ele>70.400001525879</ele>
        <time>2016-04-18T20:08:20Z</time>
      </trkpt>
      <trkpt lat="48.88389" lon="2.32843">
        <ele>70.199996948242</ele>
        <time>2016-04-18T20:08:23Z</time>
      </trkpt>
      <trkpt lat="48.88381" lon="2.32816">
        <ele>69.599998474121</ele>
        <time>2016-04-18T20:08:30Z</time>
      </trkpt>
      <trkpt lat="48.8838" lon="2.32806">
        <ele>69.400001525879</ele>
        <time>2016-04-18T20:08:32Z</time>
      </trkpt>
      <trkpt lat="48.88379" lon="2.32797">
        <ele>69.199996948242</ele>
        <time>2016-04-18T20:08:34Z</time>
      </trkpt>
      <trkpt lat="48.8838" lon="2.32781">
        <ele>68.800003051758</ele>
        <time>2016-04-18T20:08:39Z</time>
      </trkpt>
      <trkpt lat="48.8838" lon="2.32779">
        <ele>68.800003051758</ele>
        <time>2016-04-18T20:08:40Z</time>
      </trkpt>
      <trkpt lat="48.88378" lon="2.32775">
        <ele>68.599998474121</ele>
        <time>2016-04-18T20:08:43Z</time>
      </trkpt>
      <trkpt lat="48.88375" lon="2.32742">
        <ele>68.199996948242</ele>
        <time>2016-04-18T20:09:07Z</time>
      </trkpt>
      <trkpt lat="48.88362" lon="2.3272">
        <ele>68.400001525879</ele>
        <time>2016-04-18T20:09:15Z</time>
      </trkpt>
      <trkpt lat="48.88358" lon="2.32696">
        <ele>68.599998474121</ele>
        <time>2016-04-18T20:09:23Z</time>
      </trkpt>
      <trkpt lat="48.88353" lon="2.32668">
        <ele>69</ele>
        <time>2016-04-18T20:09:35Z</time>
      </trkpt>
      <trkpt lat="48.88346" lon="2.3264">
        <ele>69.199996948242</ele>
        <time>2016-04-18T20:09:39Z</time>
      </trkpt>
      <trkpt lat="48.88342" lon="2.32611">
        <ele>69.599998474121</ele>
        <time>2016-04-18T20:09:43Z</time>
      </trkpt>
      <trkpt lat="48.88335" lon="2.3258">
        <ele>70</ele>
        <time>2016-04-18T20:09:47Z</time>
      </trkpt>
      <trkpt lat="48.88329" lon="2.32551">
        <ele>69.599998474121</ele>
        <time>2016-04-18T20:09:51Z</time>
      </trkpt>
      <trkpt lat="48.88322" lon="2.32526">
        <ele>68.199996948242</ele>
        <time>2016-04-18T20:09:54Z</time>
      </trkpt>
      <trkpt lat="48.88314" lon="2.32497">
        <ele>66.599998474121</ele>
        <time>2016-04-18T20:09:57Z</time>
      </trkpt>
      <trkpt lat="48.88307" lon="2.32471">
        <ele>65.800003051758</ele>
        <time>2016-04-18T20:10:00Z</time>
      </trkpt>
      <trkpt lat="48.88302" lon="2.32439">
        <ele>64.599998474121</ele>
        <time>2016-04-18T20:10:04Z</time>
      </trkpt>
      <trkpt lat="48.88295" lon="2.32413">
        <ele>64</ele>
        <time>2016-04-18T20:10:07Z</time>
      </trkpt>
      <trkpt lat="48.88288" lon="2.32384">
        <ele>64</ele>
        <time>2016-04-18T20:10:10Z</time>
      </trkpt>
      <trkpt lat="48.88282" lon="2.32351">
        <ele>63.79999923706</ele>
        <time>2016-04-18T20:10:14Z</time>
      </trkpt>
      <trkpt lat="48.88277" lon="2.32321">
        <ele>63.79999923706</ele>
        <time>2016-04-18T20:10:18Z</time>
      </trkpt>
      <trkpt lat="48.88274" lon="2.32289">
        <ele>63</ele>
        <time>2016-04-18T20:10:22Z</time>
      </trkpt>
      <trkpt lat="48.88264" lon="2.32256">
        <ele>62.400001525879</ele>
        <time>2016-04-18T20:10:26Z</time>
      </trkpt>
      <trkpt lat="48.88254" lon="2.32228">
        <ele>60.79999923706</ele>
        <time>2016-04-18T20:10:29Z</time>
      </trkpt>
      <trkpt lat="48.88254" lon="2.32197">
        <ele>59.400001525879</ele>
        <time>2016-04-18T20:10:33Z</time>
      </trkpt>
      <trkpt lat="48.88252" lon="2.32182">
        <ele>58.599998474121</ele>
        <time>2016-04-18T20:10:35Z</time>
      </trkpt>
      <trkpt lat="48.88244" lon="2.32156">
        <ele>57</ele>
        <time>2016-04-18T20:10:38Z</time>
      </trkpt>
      <trkpt lat="48.88239" lon="2.32129">
        <ele>55.20000076294</ele>
        <time>2016-04-18T20:10:41Z</time>
      </trkpt>
      <trkpt lat="48.88236" lon="2.32109">
        <ele>54.20000076294</ele>
        <time>2016-04-18T20:10:44Z</time>
      </trkpt>
      <trkpt lat="48.88235" lon="2.32092">
        <ele>53.599998474121</ele>
        <time>2016-04-18T20:10:46Z</time>
      </trkpt>
      <trkpt lat="48.88233" lon="2.3207">
        <ele>53.20000076294</ele>
        <time>2016-04-18T20:10:49Z</time>
      </trkpt>
      <trkpt lat="48.88227" lon="2.32053">
        <ele>53.400001525879</ele>
        <time>2016-04-18T20:11:23Z</time>
      </trkpt>
      <trkpt lat="48.88222" lon="2.32027">
        <ele>53.79999923706</ele>
        <time>2016-04-18T20:11:30Z</time>
      </trkpt>
      <trkpt lat="48.88215" lon="2.31998">
        <ele>54.79999923706</ele>
        <time>2016-04-18T20:11:37Z</time>
      </trkpt>
      <trkpt lat="48.88213" lon="2.31969">
        <ele>57.400001525879</ele>
        <time>2016-04-18T20:11:43Z</time>
      </trkpt>
      <trkpt lat="48.88213" lon="2.31941">
        <ele>60</ele>
        <time>2016-04-18T20:11:48Z</time>
      </trkpt>
      <trkpt lat="48.88212" lon="2.31913">
        <ele>61.20000076294</ele>
        <time>2016-04-18T20:11:54Z</time>
      </trkpt>
      <trkpt lat="48.88211" lon="2.31884">
        <ele>62</ele>
        <time>2016-04-18T20:11:59Z</time>
      </trkpt>
      <trkpt lat="48.88203" lon="2.31855">
        <ele>62.599998474121</ele>
        <time>2016-04-18T20:12:03Z</time>
      </trkpt>
      <trkpt lat="48.88198" lon="2.31825">
        <ele>62.79999923706</ele>
        <time>2016-04-18T20:12:07Z</time>
      </trkpt>
      <trkpt lat="48.88194" lon="2.31797">
        <ele>62.400001525879</ele>
        <time>2016-04-18T20:12:11Z</time>
      </trkpt>
      <trkpt lat="48.88188" lon="2.31764">
        <ele>62.20000076294</ele>
        <time>2016-04-18T20:12:16Z</time>
      </trkpt>
      <trkpt lat="48.88185" lon="2.31751">
        <ele>62.20000076294</ele>
        <time>2016-04-18T20:12:18Z</time>
      </trkpt>
      <trkpt lat="48.88179" lon="2.31718">
        <ele>62</ele>
        <time>2016-04-18T20:12:23Z</time>
      </trkpt>
      <trkpt lat="48.88178" lon="2.3171">
        <ele>62</ele>
        <time>2016-04-18T20:12:24Z</time>
      </trkpt>
      <trkpt lat="48.88169" lon="2.3169">
        <ele>62</ele>
        <time>2016-04-18T20:12:28Z</time>
      </trkpt>
      <trkpt lat="48.88155" lon="2.31667">
        <ele>62.20000076294</ele>
        <time>2016-04-18T20:12:32Z</time>
      </trkpt>
      <trkpt lat="48.88134" lon="2.3166">
        <ele>63</ele>
        <time>2016-04-18T20:12:36Z</time>
      </trkpt>
      <trkpt lat="48.88115" lon="2.31674">
        <ele>63.79999923706</ele>
        <time>2016-04-18T20:12:42Z</time>
      </trkpt>
      <trkpt lat="48.88113" lon="2.31676">
        <ele>64</ele>
        <time>2016-04-18T20:12:43Z</time>
      </trkpt>
      <trkpt lat="48.88097" lon="2.3169">
        <ele>64</ele>
        <time>2016-04-18T20:12:50Z</time>
      </trkpt>
      <trkpt lat="48.88077" lon="2.31691">
        <ele>63.20000076294</ele>
        <time>2016-04-18T20:12:57Z</time>
      </trkpt>
      <trkpt lat="48.88058" lon="2.31698">
        <ele>62.599998474121</ele>
        <time>2016-04-18T20:13:03Z</time>
      </trkpt>
      <trkpt lat="48.88044" lon="2.31718">
        <ele>63.20000076294</ele>
        <time>2016-04-18T20:13:09Z</time>
      </trkpt>
      <trkpt lat="48.88028" lon="2.31731">
        <ele>63.400001525879</ele>
        <time>2016-04-18T20:13:14Z</time>
      </trkpt>
      <trkpt lat="48.88011" lon="2.31747">
        <ele>63.599998474121</ele>
        <time>2016-04-18T20:13:19Z</time>
      </trkpt>
      <trkpt lat="48.87996" lon="2.31772">
        <ele>63.400001525879</ele>
        <time>2016-04-18T20:13:25Z</time>
      </trkpt>
      <trkpt lat="48.87982" lon="2.31796">
        <ele>63.20000076294</ele>
        <time>2016-04-18T20:13:31Z</time>
      </trkpt>
      <trkpt lat="48.87964" lon="2.31811">
        <ele>63.20000076294</ele>
        <time>2016-04-18T20:13:36Z</time>
      </trkpt>
      <trkpt lat="48.87946" lon="2.31827">
        <ele>63</ele>
        <time>2016-04-18T20:13:41Z</time>
      </trkpt>
      <trkpt lat="48.87929" lon="2.31849">
        <ele>63</ele>
        <time>2016-04-18T20:13:46Z</time>
      </trkpt>
      <trkpt lat="48.87914" lon="2.31876">
        <ele>62.79999923706</ele>
        <time>2016-04-18T20:13:49Z</time>
      </trkpt>
      <trkpt lat="48.87901" lon="2.31897">
        <ele>62.20000076294</ele>
        <time>2016-04-18T20:13:53Z</time>
      </trkpt>
      <trkpt lat="48.87887" lon="2.31924">
        <ele>61</ele>
        <time>2016-04-18T20:13:57Z</time>
      </trkpt>
      <trkpt lat="48.87873" lon="2.3195">
        <ele>59.79999923706</ele>
        <time>2016-04-18T20:14:00Z</time>
      </trkpt>
      <trkpt lat="48.87867" lon="2.31968">
        <ele>59.20000076294</ele>
        <time>2016-04-18T20:14:03Z</time>
      </trkpt>
      <trkpt lat="48.8786" lon="2.31979">
        <ele>58.400001525879</ele>
        <time>2016-04-18T20:14:06Z</time>
      </trkpt>
      <trkpt lat="48.87837" lon="2.31987">
        <ele>57.400001525879</ele>
        <time>2016-04-18T20:14:10Z</time>
      </trkpt>
      <trkpt lat="48.87834" lon="2.31991">
        <ele>57.20000076294</ele>
        <time>2016-04-18T20:14:11Z</time>
      </trkpt>
      <trkpt lat="48.87819" lon="2.32011">
        <ele>57.20000076294</ele>
        <time>2016-04-18T20:14:16Z</time>
      </trkpt>
      <trkpt lat="48.87813" lon="2.32023">
        <ele>57.400001525879</ele>
        <time>2016-04-18T20:14:18Z</time>
      </trkpt>
      <trkpt lat="48.87807" lon="2.32033">
        <ele>57.599998474121</ele>
        <time>2016-04-18T20:14:20Z</time>
      </trkpt>
      <trkpt lat="48.87791" lon="2.32052">
        <ele>58</ele>
        <time>2016-04-18T20:14:25Z</time>
      </trkpt>
      <trkpt lat="48.87776" lon="2.32069">
        <ele>58.599998474121</ele>
        <time>2016-04-18T20:14:28Z</time>
      </trkpt>
      <trkpt lat="48.87759" lon="2.32094">
        <ele>57.79999923706</ele>
        <time>2016-04-18T20:14:32Z</time>
      </trkpt>
      <trkpt lat="48.87745" lon="2.32114">
        <ele>56.79999923706</ele>
        <time>2016-04-18T20:14:35Z</time>
      </trkpt>
      <trkpt lat="48.87737" lon="2.32125">
        <ele>56.20000076294</ele>
        <time>2016-04-18T20:14:37Z</time>
      </trkpt>
      <trkpt lat="48.87725" lon="2.32141">
        <ele>55.599998474121</ele>
        <time>2016-04-18T20:14:41Z</time>
      </trkpt>
      <trkpt lat="48.87717" lon="2.32147">
        <ele>55.20000076294</ele>
        <time>2016-04-18T20:14:44Z</time>
      </trkpt>
      <trkpt lat="48.87698" lon="2.32153">
        <ele>53.400001525879</ele>
        <time>2016-04-18T20:14:51Z</time>
      </trkpt>
      <trkpt lat="48.87693" lon="2.32157">
        <ele>53</ele>
        <time>2016-04-18T20:14:52Z</time>
      </trkpt>
      <trkpt lat="48.87686" lon="2.32163">
        <ele>52.79999923706</ele>
        <time>2016-04-18T20:14:54Z</time>
      </trkpt>
      <trkpt lat="48.8767" lon="2.32179">
        <ele>51</ele>
        <time>2016-04-18T20:14:58Z</time>
      </trkpt>
      <trkpt lat="48.87655" lon="2.32199">
        <ele>49.20000076294</ele>
        <time>2016-04-18T20:15:02Z</time>
      </trkpt>
      <trkpt lat="48.87642" lon="2.32211">
        <ele>48.400001525879</ele>
        <time>2016-04-18T20:15:05Z</time>
      </trkpt>
      <trkpt lat="48.87629" lon="2.32225">
        <ele>48.20000076294</ele>
        <time>2016-04-18T20:15:08Z</time>
      </trkpt>
      <trkpt lat="48.87614" lon="2.32245">
        <ele>48.20000076294</ele>
        <time>2016-04-18T20:15:13Z</time>
      </trkpt>
      <trkpt lat="48.876" lon="2.32263">
        <ele>47</ele>
        <time>2016-04-18T20:15:18Z</time>
      </trkpt>
      <trkpt lat="48.87589" lon="2.32285">
        <ele>45.400001525879</ele>
        <time>2016-04-18T20:15:24Z</time>
      </trkpt>
      <trkpt lat="48.87583" lon="2.3229">
        <ele>45.20000076294</ele>
        <time>2016-04-18T20:15:29Z</time>
      </trkpt>
      <trkpt lat="48.87582" lon="2.3229">
        <ele>45.20000076294</ele>
        <time>2016-04-18T20:15:30Z</time>
      </trkpt>
      <trkpt lat="48.87571" lon="2.32297">
        <ele>44.599998474121</ele>
        <time>2016-04-18T20:15:37Z</time>
      </trkpt>
      <trkpt lat="48.87557" lon="2.32297">
        <ele>45</ele>
        <time>2016-04-18T20:15:41Z</time>
      </trkpt>
      <trkpt lat="48.87539" lon="2.32296">
        <ele>45.400001525879</ele>
        <time>2016-04-18T20:15:50Z</time>
      </trkpt>
      <trkpt lat="48.87535" lon="2.32296">
        <ele>45.599998474121</ele>
        <time>2016-04-18T20:15:53Z</time>
      </trkpt>
      <trkpt lat="48.87525" lon="2.32297">
        <ele>45.79999923706</ele>
        <time>2016-04-18T20:16:24Z</time>
      </trkpt>
      <trkpt lat="48.8751" lon="2.32288">
        <ele>45.79999923706</ele>
        <time>2016-04-18T20:16:36Z</time>
      </trkpt>
      <trkpt lat="48.8749" lon="2.32283">
        <ele>45.79999923706</ele>
        <time>2016-04-18T20:16:44Z</time>
      </trkpt>
      <trkpt lat="48.87468" lon="2.32273">
        <ele>45.79999923706</ele>
        <time>2016-04-18T20:16:51Z</time>
      </trkpt>
      <trkpt lat="48.87447" lon="2.32278">
        <ele>45</ele>
        <time>2016-04-18T20:16:59Z</time>
      </trkpt>
      <trkpt lat="48.87426" lon="2.32275">
        <ele>44.400001525879</ele>
        <time>2016-04-18T20:17:04Z</time>
      </trkpt>
      <trkpt lat="48.87408" lon="2.32273">
        <ele>44</ele>
        <time>2016-04-18T20:17:07Z</time>
      </trkpt>
      <trkpt lat="48.87389" lon="2.32265">
        <ele>43.599998474121</ele>
        <time>2016-04-18T20:17:11Z</time>
      </trkpt>
      <trkpt lat="48.87371" lon="2.32258">
        <ele>43.20000076294</ele>
        <time>2016-04-18T20:17:16Z</time>
      </trkpt>
      <trkpt lat="48.8736" lon="2.32259">
        <ele>43</ele>
        <time>2016-04-18T20:17:19Z</time>
      </trkpt>
      <trkpt lat="48.87357" lon="2.32275">
        <ele>43</ele>
        <time>2016-04-18T20:17:23Z</time>
      </trkpt>
      <trkpt lat="48.87354" lon="2.32307">
        <ele>43.20000076294</ele>
        <time>2016-04-18T20:17:28Z</time>
      </trkpt>
      <trkpt lat="48.87354" lon="2.32339">
        <ele>43.400001525879</ele>
        <time>2016-04-18T20:17:33Z</time>
      </trkpt>
      <trkpt lat="48.8735" lon="2.32357">
        <ele>44</ele>
        <time>2016-04-18T20:17:37Z</time>
      </trkpt>
      <trkpt lat="48.87329" lon="2.32357">
        <ele>45.20000076294</ele>
        <time>2016-04-18T20:17:43Z</time>
      </trkpt>
      <trkpt lat="48.87309" lon="2.32355">
        <ele>46.400001525879</ele>
        <time>2016-04-18T20:17:47Z</time>
      </trkpt>
      <trkpt lat="48.87289" lon="2.32353">
        <ele>47.400001525879</ele>
        <time>2016-04-18T20:17:51Z</time>
      </trkpt>
      <trkpt lat="48.87271" lon="2.32349">
        <ele>48</ele>
        <time>2016-04-18T20:17:55Z</time>
      </trkpt>
      <trkpt lat="48.8725" lon="2.32349">
        <ele>48.599998474121</ele>
        <time>2016-04-18T20:18:01Z</time>
      </trkpt>
      <trkpt lat="48.8723" lon="2.32343">
        <ele>49</ele>
        <time>2016-04-18T20:18:04Z</time>
      </trkpt>
      <trkpt lat="48.87221" lon="2.32339">
        <ele>49.20000076294</ele>
        <time>2016-04-18T20:18:06Z</time>
      </trkpt>
      <trkpt lat="48.87203" lon="2.32331">
        <ele>49.599998474121</ele>
        <time>2016-04-18T20:18:10Z</time>
      </trkpt>
      <trkpt lat="48.87184" lon="2.32328">
        <ele>49.599998474121</ele>
        <time>2016-04-18T20:18:15Z</time>
      </trkpt>
      <trkpt lat="48.87166" lon="2.32324">
        <ele>48.599998474121</ele>
        <time>2016-04-18T20:18:20Z</time>
      </trkpt>
      <trkpt lat="48.87146" lon="2.32322">
        <ele>47.400001525879</ele>
        <time>2016-04-18T20:18:26Z</time>
      </trkpt>
      <trkpt lat="48.87128" lon="2.32315">
        <ele>46.20000076294</ele>
        <time>2016-04-18T20:18:31Z</time>
      </trkpt>
      <trkpt lat="48.87111" lon="2.323">
        <ele>45.20000076294</ele>
        <time>2016-04-18T20:18:35Z</time>
      </trkpt>
      <trkpt lat="48.87095" lon="2.32288">
        <ele>45</ele>
        <time>2016-04-18T20:18:41Z</time>
      </trkpt>
      <trkpt lat="48.87076" lon="2.32289">
        <ele>45</ele>
        <time>2016-04-18T20:18:47Z</time>
      </trkpt>
      <trkpt lat="48.87057" lon="2.32287">
        <ele>45</ele>
        <time>2016-04-18T20:18:54Z</time>
      </trkpt>
      <trkpt lat="48.87039" lon="2.32277">
        <ele>45</ele>
        <time>2016-04-18T20:18:59Z</time>
      </trkpt>
      <trkpt lat="48.8702" lon="2.32266">
        <ele>45</ele>
        <time>2016-04-18T20:19:04Z</time>
      </trkpt>
      <trkpt lat="48.87" lon="2.32257">
        <ele>45.79999923706</ele>
        <time>2016-04-18T20:19:10Z</time>
      </trkpt>
      <trkpt lat="48.86983" lon="2.32243">
        <ele>46.400001525879</ele>
        <time>2016-04-18T20:19:15Z</time>
      </trkpt>
      <trkpt lat="48.86962" lon="2.32235">
        <ele>47</ele>
        <time>2016-04-18T20:19:21Z</time>
      </trkpt>
      <trkpt lat="48.86941" lon="2.32229">
        <ele>47.599998474121</ele>
        <time>2016-04-18T20:19:26Z</time>
      </trkpt>
      <trkpt lat="48.86924" lon="2.32216">
        <ele>47.400001525879</ele>
        <time>2016-04-18T20:19:31Z</time>
      </trkpt>
      <trkpt lat="48.86907" lon="2.32206">
        <ele>47.400001525879</ele>
        <time>2016-04-18T20:19:34Z</time>
      </trkpt>
      <trkpt lat="48.86903" lon="2.32207">
        <ele>47.400001525879</ele>
        <time>2016-04-18T20:19:38Z</time>
      </trkpt>
      <trkpt lat="48.86897" lon="2.32199">
        <ele>47.400001525879</ele>
        <time>2016-04-18T20:19:51Z</time>
      </trkpt>
      <trkpt lat="48.86886" lon="2.32224">
        <ele>47.79999923706</ele>
        <time>2016-04-18T20:19:57Z</time>
      </trkpt>
      <trkpt lat="48.86878" lon="2.32251">
        <ele>48</ele>
        <time>2016-04-18T20:20:01Z</time>
      </trkpt>
      <trkpt lat="48.86872" lon="2.32262">
        <ele>48.20000076294</ele>
        <time>2016-04-18T20:20:03Z</time>
      </trkpt>
      <trkpt lat="48.86865" lon="2.32292">
        <ele>48.20000076294</ele>
        <time>2016-04-18T20:20:09Z</time>
      </trkpt>
      <trkpt lat="48.86861" lon="2.3232">
        <ele>48</ele>
        <time>2016-04-18T20:20:16Z</time>
      </trkpt>
      <trkpt lat="48.8685" lon="2.32343">
        <ele>48</ele>
        <time>2016-04-18T20:20:22Z</time>
      </trkpt>
      <trkpt lat="48.86834" lon="2.32368">
        <ele>48.20000076294</ele>
        <time>2016-04-18T20:20:27Z</time>
      </trkpt>
      <trkpt lat="48.8682" lon="2.32393">
        <ele>47.79999923706</ele>
        <time>2016-04-18T20:20:31Z</time>
      </trkpt>
      <trkpt lat="48.8681" lon="2.32418">
        <ele>47.20000076294</ele>
        <time>2016-04-18T20:20:35Z</time>
      </trkpt>
      <trkpt lat="48.86803" lon="2.32445">
        <ele>46.400001525879</ele>
        <time>2016-04-18T20:20:39Z</time>
      </trkpt>
      <trkpt lat="48.86796" lon="2.32473">
        <ele>46.20000076294</ele>
        <time>2016-04-18T20:20:43Z</time>
      </trkpt>
      <trkpt lat="48.86785" lon="2.32502">
        <ele>45.400001525879</ele>
        <time>2016-04-18T20:20:47Z</time>
      </trkpt>
      <trkpt lat="48.86775" lon="2.32531">
        <ele>45.400001525879</ele>
        <time>2016-04-18T20:20:51Z</time>
      </trkpt>
      <trkpt lat="48.86768" lon="2.3256">
        <ele>45.79999923706</ele>
        <time>2016-04-18T20:20:55Z</time>
      </trkpt>
      <trkpt lat="48.8676" lon="2.32583">
        <ele>46</ele>
        <time>2016-04-18T20:20:59Z</time>
      </trkpt>
      <trkpt lat="48.86756" lon="2.32611">
        <ele>46.79999923706</ele>
        <time>2016-04-18T20:21:02Z</time>
      </trkpt>
      <trkpt lat="48.86754" lon="2.32617">
        <ele>46.79999923706</ele>
        <time>2016-04-18T20:21:03Z</time>
      </trkpt>
      <trkpt lat="48.86748" lon="2.32644">
        <ele>47.599998474121</ele>
        <time>2016-04-18T20:21:07Z</time>
      </trkpt>
      <trkpt lat="48.86742" lon="2.32672">
        <ele>48.20000076294</ele>
        <time>2016-04-18T20:21:11Z</time>
      </trkpt>
      <trkpt lat="48.86729" lon="2.327">
        <ele>48.400001525879</ele>
        <time>2016-04-18T20:21:15Z</time>
      </trkpt>
      <trkpt lat="48.86717" lon="2.3273">
        <ele>49.20000076294</ele>
        <time>2016-04-18T20:21:19Z</time>
      </trkpt>
      <trkpt lat="48.8671" lon="2.32762">
        <ele>49.599998474121</ele>
        <time>2016-04-18T20:21:23Z</time>
      </trkpt>
      <trkpt lat="48.86701" lon="2.32793">
        <ele>48.400001525879</ele>
        <time>2016-04-18T20:21:27Z</time>
      </trkpt>
      <trkpt lat="48.86688" lon="2.32817">
        <ele>47.400001525879</ele>
        <time>2016-04-18T20:21:31Z</time>
      </trkpt>
      <trkpt lat="48.86677" lon="2.32846">
        <ele>47</ele>
        <time>2016-04-18T20:21:34Z</time>
      </trkpt>
      <trkpt lat="48.86665" lon="2.32863">
        <ele>47</ele>
        <time>2016-04-18T20:21:38Z</time>
      </trkpt>
      <trkpt lat="48.86663" lon="2.32873">
        <ele>47</ele>
        <time>2016-04-18T20:21:40Z</time>
      </trkpt>
      <trkpt lat="48.86656" lon="2.32898">
        <ele>47.400001525879</ele>
        <time>2016-04-18T20:21:44Z</time>
      </trkpt>
      <trkpt lat="48.86647" lon="2.32927">
        <ele>47.79999923706</ele>
        <time>2016-04-18T20:21:48Z</time>
      </trkpt>
      <trkpt lat="48.86638" lon="2.32952">
        <ele>47.79999923706</ele>
        <time>2016-04-18T20:21:52Z</time>
      </trkpt>
      <trkpt lat="48.86626" lon="2.32973">
        <ele>48.20000076294</ele>
        <time>2016-04-18T20:21:56Z</time>
      </trkpt>
      <trkpt lat="48.8661" lon="2.32995">
        <ele>48.79999923706</ele>
        <time>2016-04-18T20:22:01Z</time>
      </trkpt>
      <trkpt lat="48.86596" lon="2.33015">
        <ele>47.79999923706</ele>
        <time>2016-04-18T20:22:06Z</time>
      </trkpt>
      <trkpt lat="48.86584" lon="2.33042">
        <ele>46.400001525879</ele>
        <time>2016-04-18T20:22:09Z</time>
      </trkpt>
      <trkpt lat="48.86568" lon="2.33066">
        <ele>46.20000076294</ele>
        <time>2016-04-18T20:22:12Z</time>
      </trkpt>
      <trkpt lat="48.86557" lon="2.33087">
        <ele>46.79999923706</ele>
        <time>2016-04-18T20:22:16Z</time>
      </trkpt>
      <trkpt lat="48.86546" lon="2.33112">
        <ele>47</ele>
        <time>2016-04-18T20:22:20Z</time>
      </trkpt>
      <trkpt lat="48.86534" lon="2.3314">
        <ele>46.400001525879</ele>
        <time>2016-04-18T20:22:25Z</time>
      </trkpt>
      <trkpt lat="48.86522" lon="2.33162">
        <ele>46</ele>
        <time>2016-04-18T20:22:29Z</time>
      </trkpt>
      <trkpt lat="48.86509" lon="2.33184">
        <ele>46</ele>
        <time>2016-04-18T20:22:33Z</time>
      </trkpt>
      <trkpt lat="48.86503" lon="2.33189">
        <ele>45.79999923706</ele>
        <time>2016-04-18T20:22:34Z</time>
      </trkpt>
      <trkpt lat="48.86492" lon="2.33215">
        <ele>45.79999923706</ele>
        <time>2016-04-18T20:22:38Z</time>
      </trkpt>
      <trkpt lat="48.86489" lon="2.3322">
        <ele>46</ele>
        <time>2016-04-18T20:22:39Z</time>
      </trkpt>
      <trkpt lat="48.86478" lon="2.33242">
        <ele>46.79999923706</ele>
        <time>2016-04-18T20:22:43Z</time>
      </trkpt>
      <trkpt lat="48.86474" lon="2.33253">
        <ele>47</ele>
        <time>2016-04-18T20:22:45Z</time>
      </trkpt>
      <trkpt lat="48.86471" lon="2.33264">
        <ele>47.20000076294</ele>
        <time>2016-04-18T20:22:47Z</time>
      </trkpt>
      <trkpt lat="48.86461" lon="2.33287">
        <ele>47.400001525879</ele>
        <time>2016-04-18T20:22:52Z</time>
      </trkpt>
      <trkpt lat="48.8645" lon="2.33307">
        <ele>47.79999923706</ele>
        <time>2016-04-18T20:22:56Z</time>
      </trkpt>
      <trkpt lat="48.86449" lon="2.3332">
        <ele>47.79999923706</ele>
        <time>2016-04-18T20:22:58Z</time>
      </trkpt>
      <trkpt lat="48.86438" lon="2.33345">
        <ele>48.400001525879</ele>
        <time>2016-04-18T20:23:03Z</time>
      </trkpt>
      <trkpt lat="48.86428" lon="2.33368">
        <ele>48.79999923706</ele>
        <time>2016-04-18T20:23:07Z</time>
      </trkpt>
      <trkpt lat="48.86415" lon="2.33388">
        <ele>49.400001525879</ele>
        <time>2016-04-18T20:23:11Z</time>
      </trkpt>
      <trkpt lat="48.86406" lon="2.33402">
        <ele>50</ele>
        <time>2016-04-18T20:23:14Z</time>
      </trkpt>
      <trkpt lat="48.86393" lon="2.33421">
        <ele>50.599998474121</ele>
        <time>2016-04-18T20:23:17Z</time>
      </trkpt>
      <trkpt lat="48.86389" lon="2.33426">
        <ele>50.599998474121</ele>
        <time>2016-04-18T20:23:18Z</time>
      </trkpt>
      <trkpt lat="48.86385" lon="2.33433">
        <ele>50.599998474121</ele>
        <time>2016-04-18T20:23:21Z</time>
      </trkpt>
      <trkpt lat="48.86382" lon="2.33438">
        <ele>50.599998474121</ele>
        <time>2016-04-18T20:23:27Z</time>
      </trkpt>
      <trkpt lat="48.86381" lon="2.33438">
        <ele>50.79999923706</ele>
        <time>2016-04-18T20:23:28Z</time>
      </trkpt>
      <trkpt lat="48.86367" lon="2.33463">
        <ele>49.400001525879</ele>
        <time>2016-04-18T20:23:44Z</time>
      </trkpt>
      <trkpt lat="48.86357" lon="2.33489">
        <ele>48.400001525879</ele>
        <time>2016-04-18T20:23:49Z</time>
      </trkpt>
      <trkpt lat="48.86346" lon="2.33515">
        <ele>47.20000076294</ele>
        <time>2016-04-18T20:23:54Z</time>
      </trkpt>
      <trkpt lat="48.86334" lon="2.33544">
        <ele>46.400001525879</ele>
        <time>2016-04-18T20:23:59Z</time>
      </trkpt>
      <trkpt lat="48.86321" lon="2.33563">
        <ele>46.599998474121</ele>
        <time>2016-04-18T20:24:03Z</time>
      </trkpt>
      <trkpt lat="48.8631" lon="2.33584">
        <ele>47.400001525879</ele>
        <time>2016-04-18T20:24:07Z</time>
      </trkpt>
      <trkpt lat="48.86299" lon="2.33611">
        <ele>46.599998474121</ele>
        <time>2016-04-18T20:24:12Z</time>
      </trkpt>
      <trkpt lat="48.86298" lon="2.33617">
        <ele>46.599998474121</ele>
        <time>2016-04-18T20:24:13Z</time>
      </trkpt>
      <trkpt lat="48.86295" lon="2.33647">
        <ele>46.400001525879</ele>
        <time>2016-04-18T20:24:18Z</time>
      </trkpt>
      <trkpt lat="48.86285" lon="2.33671">
        <ele>46.400001525879</ele>
        <time>2016-04-18T20:24:22Z</time>
      </trkpt>
      <trkpt lat="48.86276" lon="2.33696">
        <ele>46.400001525879</ele>
        <time>2016-04-18T20:24:26Z</time>
      </trkpt>
      <trkpt lat="48.8627" lon="2.33726">
        <ele>46.400001525879</ele>
        <time>2016-04-18T20:24:30Z</time>
      </trkpt>
      <trkpt lat="48.86263" lon="2.33756">
        <ele>46</ele>
        <time>2016-04-18T20:24:34Z</time>
      </trkpt>
      <trkpt lat="48.8626" lon="2.33762">
        <ele>46</ele>
        <time>2016-04-18T20:24:35Z</time>
      </trkpt>
      <trkpt lat="48.86251" lon="2.3379">
        <ele>45.79999923706</ele>
        <time>2016-04-18T20:24:39Z</time>
      </trkpt>
      <trkpt lat="48.86244" lon="2.3382">
        <ele>44.79999923706</ele>
        <time>2016-04-18T20:24:43Z</time>
      </trkpt>
      <trkpt lat="48.86242" lon="2.33852">
        <ele>45</ele>
        <time>2016-04-18T20:24:48Z</time>
      </trkpt>
      <trkpt lat="48.8624" lon="2.33866">
        <ele>45.599998474121</ele>
        <time>2016-04-18T20:24:50Z</time>
      </trkpt>
      <trkpt lat="48.86235" lon="2.33899">
        <ele>46.20000076294</ele>
        <time>2016-04-18T20:24:55Z</time>
      </trkpt>
      <trkpt lat="48.86228" lon="2.3393">
        <ele>46.79999923706</ele>
        <time>2016-04-18T20:25:00Z</time>
      </trkpt>
      <trkpt lat="48.8622" lon="2.3396">
        <ele>47.599998474121</ele>
        <time>2016-04-18T20:25:05Z</time>
      </trkpt>
      <trkpt lat="48.86218" lon="2.33966">
        <ele>47.79999923706</ele>
        <time>2016-04-18T20:25:06Z</time>
      </trkpt>
      <trkpt lat="48.86214" lon="2.33994">
        <ele>49.20000076294</ele>
        <time>2016-04-18T20:25:10Z</time>
      </trkpt>
      <trkpt lat="48.86207" lon="2.34022">
        <ele>49.599998474121</ele>
        <time>2016-04-18T20:25:14Z</time>
      </trkpt>
      <trkpt lat="48.862" lon="2.3405">
        <ele>49.400001525879</ele>
        <time>2016-04-18T20:25:18Z</time>
      </trkpt>
      <trkpt lat="48.86199" lon="2.34057">
        <ele>49.400001525879</ele>
        <time>2016-04-18T20:25:19Z</time>
      </trkpt>
      <trkpt lat="48.86193" lon="2.34084">
        <ele>49</ele>
        <time>2016-04-18T20:25:23Z</time>
      </trkpt>
      <trkpt lat="48.86182" lon="2.34109">
        <ele>49</ele>
        <time>2016-04-18T20:25:28Z</time>
      </trkpt>
      <trkpt lat="48.86178" lon="2.34118">
        <ele>49</ele>
        <time>2016-04-18T20:25:31Z</time>
      </trkpt>
      <trkpt lat="48.86172" lon="2.3413">
        <ele>49</ele>
        <time>2016-04-18T20:25:44Z</time>
      </trkpt>
      <trkpt lat="48.86166" lon="2.34159">
        <ele>49.400001525879</ele>
        <time>2016-04-18T20:25:55Z</time>
      </trkpt>
      <trkpt lat="48.8616" lon="2.3419">
        <ele>49.20000076294</ele>
        <time>2016-04-18T20:26:00Z</time>
      </trkpt>
      <trkpt lat="48.86154" lon="2.34217">
        <ele>49.20000076294</ele>
        <time>2016-04-18T20:26:04Z</time>
      </trkpt>
      <trkpt lat="48.86147" lon="2.34248">
        <ele>49.400001525879</ele>
        <time>2016-04-18T20:26:09Z</time>
      </trkpt>
      <trkpt lat="48.86146" lon="2.34278">
        <ele>49.20000076294</ele>
        <time>2016-04-18T20:26:14Z</time>
      </trkpt>
      <trkpt lat="48.8614" lon="2.34308">
        <ele>49.599998474121</ele>
        <time>2016-04-18T20:26:19Z</time>
      </trkpt>
      <trkpt lat="48.86134" lon="2.34337">
        <ele>50</ele>
        <time>2016-04-18T20:26:23Z</time>
      </trkpt>
      <trkpt lat="48.86128" lon="2.34366">
        <ele>49.20000076294</ele>
        <time>2016-04-18T20:26:27Z</time>
      </trkpt>
      <trkpt lat="48.86122" lon="2.34392">
        <ele>49.400001525879</ele>
        <time>2016-04-18T20:26:31Z</time>
      </trkpt>
      <trkpt lat="48.8612" lon="2.34422">
        <ele>48.400001525879</ele>
        <time>2016-04-18T20:26:35Z</time>
      </trkpt>
      <trkpt lat="48.86116" lon="2.34449">
        <ele>48.79999923706</ele>
        <time>2016-04-18T20:26:39Z</time>
      </trkpt>
      <trkpt lat="48.86114" lon="2.34477">
        <ele>49.400001525879</ele>
        <time>2016-04-18T20:26:43Z</time>
      </trkpt>
      <trkpt lat="48.86112" lon="2.34499">
        <ele>50.20000076294</ele>
        <time>2016-04-18T20:26:46Z</time>
      </trkpt>
      <trkpt lat="48.86107" lon="2.34529">
        <ele>50.599998474121</ele>
        <time>2016-04-18T20:26:50Z</time>
      </trkpt>
      <trkpt lat="48.86106" lon="2.34536">
        <ele>50.599998474121</ele>
        <time>2016-04-18T20:26:51Z</time>
      </trkpt>
      <trkpt lat="48.86099" lon="2.34547">
        <ele>50.599998474121</ele>
        <time>2016-04-18T20:26:53Z</time>
      </trkpt>
      <trkpt lat="48.86089" lon="2.3457">
        <ele>50.20000076294</ele>
        <time>2016-04-18T20:26:57Z</time>
      </trkpt>
      <trkpt lat="48.86084" lon="2.34576">
        <ele>50</ele>
        <time>2016-04-18T20:26:58Z</time>
      </trkpt>
      <trkpt lat="48.86071" lon="2.34593">
        <ele>48.599998474121</ele>
        <time>2016-04-18T20:27:01Z</time>
      </trkpt>
      <trkpt lat="48.86055" lon="2.34609">
        <ele>47</ele>
        <time>2016-04-18T20:27:05Z</time>
      </trkpt>
      <trkpt lat="48.86039" lon="2.34623">
        <ele>46.79999923706</ele>
        <time>2016-04-18T20:27:09Z</time>
      </trkpt>
      <trkpt lat="48.86035" lon="2.34625">
        <ele>47</ele>
        <time>2016-04-18T20:27:10Z</time>
      </trkpt>
      <trkpt lat="48.86025" lon="2.34635">
        <ele>47</ele>
        <time>2016-04-18T20:27:13Z</time>
      </trkpt>
      <trkpt lat="48.86008" lon="2.34651">
        <ele>46.79999923706</ele>
        <time>2016-04-18T20:27:18Z</time>
      </trkpt>
      <trkpt lat="48.85991" lon="2.34665">
        <ele>46.400001525879</ele>
        <time>2016-04-18T20:27:23Z</time>
      </trkpt>
      <trkpt lat="48.85983" lon="2.34674">
        <ele>46.400001525879</ele>
        <time>2016-04-18T20:27:26Z</time>
      </trkpt>
      <trkpt lat="48.85971" lon="2.34688">
        <ele>46.400001525879</ele>
        <time>2016-04-18T20:27:31Z</time>
      </trkpt>
      <trkpt lat="48.85963" lon="2.34711">
        <ele>45.599998474121</ele>
        <time>2016-04-18T20:27:39Z</time>
      </trkpt>
      <trkpt lat="48.85955" lon="2.34728">
        <ele>44.79999923706</ele>
        <time>2016-04-18T20:27:48Z</time>
      </trkpt>
      <trkpt lat="48.85958" lon="2.34734">
        <ele>44.79999923706</ele>
        <time>2016-04-18T20:27:55Z</time>
      </trkpt>
    </trkseg>
  </trk>
</gpx>